GFSGBSN_500_rhum_156.txt.gz
RH
57 54 53 48 48 50 48 46 48 54 52 48 50 52 67 37 40 36 31 37 52 66 67 59 46 31 28 40 48 45 38 38 36 31 24 22 22 30 25 21 21 20 20 19 25 23 38
97 89 69 55 64 49 48 42 46 56 56 55 54 51 58 54 48 69 73 64 49 49 71 68 61 57 51 52 48 44 42 40 39 35 32 33 29 30 33 26 22 18 19 19 17 18 29
72 82 62 74 98 97 87 71 43 50 62 59 64 61 59 58 57 70 74 78 77 70 60 73 68 61 58 54 52 46 40 35 31 29 28 32 41 33 33 29 27 23 18 16 16 13 12
85 79 80 69 87 98 98 98 62 46 52 55 60 60 62 64 58 63 73 74 72 83 76 72 70 68 65 56 52 50 40 32 32 32 32 33 39 46 42 33 27 24 23 18 14 16 16
92 95 94 98 80 81 99 82 98 74 58 73 66 63 68 69 66 66 73 78 81 71 79 78 78 71 72 71 58 56 50 38 33 32 32 34 38 42 42 42 36 27 27 18 18 17 19
89 92 99 100 94 91 93 91 77 74 76 76 83 81 83 80 76 74 73 67 68 58 59 75 75 72 65 67 67 59 53 44 35 34 38 38 39 39 39 38 36 39 37 44 57 57 28
100 97 100 100 99 97 98 98 99 97 95 91 85 91 92 87 84 82 84 82 74 69 60 61 54 74 73 68 73 62 51 55 47 38 44 42 39 39 36 34 36 37 41 44 44 25 23
97 97 100 99 100 98 94 97 99 97 99 91 91 94 96 94 83 80 88 86 79 76 66 69 70 57 60 59 63 58 51 53 52 47 50 50 43 46 45 47 51 54 53 51 47 50 49
99 100 99 97 98 99 100 100 96 97 98 95 90 83 96 94 84 81 84 79 76 76 70 72 66 64 63 61 66 67 51 52 56 49 64 54 48 44 52 52 47 43 40 38 37 37 35
98 93 99 98 95 98 97 94 96 95 91 99 99 100 100 98 94 100 80 83 72 62 61 65 59 68 68 64 58 65 61 60 55 61 64 59 57 51 48 45 44 44 42 41 41 40 39
62 74 92 98 97 98 97 97 94 97 93 86 89 97 98 91 84 80 80 79 78 76 65 62 47 59 62 70 67 63 62 61 57 54 53 48 48 52 60 83 88 76 71 64 54 48 43
36 37 36 34 46 67 73 89 94 88 84 87 87 93 92 80 78 74 70 68 79 87 64 72 68 69 70 74 73 68 65 64 59 62 61 68 76 77 69 56 55 56 56 49 44 43 38
19 18 18 18 22 24 24 23 28 42 54 59 59 57 51 52 48 65 55 74 84 62 60 84 58 58 76 81 84 88 88 87 96 98 95 80 79 69 59 43 41 44 43 38 34 29 47
36 34 36 29 20 20 21 22 22 22 22 23 24 27 29 29 28 35 59 77 55 54 79 86 57 75 80 89 90 84 90 95 95 98 93 86 71 57 48 30 38 42 30 30 78 33 22
60 57 53 50 46 39 33 37 43 41 38 32 28 25 23 22 23 32 63 63 37 73 83 67 74 94 100 99 86 82 84 93 92 92 76 73 64 63 49 44 44 28 22 27 48 20 22
73 87 81 78 70 62 53 48 51 51 55 49 48 43 38 33 27 29 41 28 56 87 78 85 93 100 95 98 87 98 90 89 79 79 70 60 52 46 41 33 26 18 16 17 26 88 59
41 64 94 97 97 86 77 67 66 71 68 66 64 55 46 40 33 29 28 33 78 68 64 91 100 100 85 100 97 72 89 92 86 76 65 56 55 42 36 26 20 23 46 63 86 74 92
42 44 56 70 100 100 94 85 79 80 83 77 77 65 51 46 40 35 32 41 89 94 40 100 100 100 95 100 96 90 81 97 80 72 69 44 37 22 14 11 13 15 16 39 50 24 60
52 66 65 77 91 100 98 94 93 93 94 100 88 76 62 49 44 38 31 32 83 80 70 100 100 100 92 98 95 91 94 85 78 80 44 11 13 13 14 15 18 30 38 36 41 45 24
80 80 73 88 99 100 100 100 90 92 100 100 99 96 85 74 52 36 34 46 77 51 100 100 100 100 97 94 95 82 82 60 49 16 18 8 8 9 10 11 13 17 20 28 80 86 68
78 87 91 92 100 100 100 100 98 100 100 100 98 87 80 62 50 27 41 46 96 83 100 100 98 100 100 89 75 50 29 8 8 8 8 8 8 9 10 11 14 23 23 21 44 41 36
52 61 72 72 79 93 100 100 100 100 100 100 99 87 77 44 31 40 43 67 100 100 100 99 86 62 63 48 21 8 10 12 13 12 13 15 16 17 19 20 26 25 17 30 40 12 6
25 30 41 59 62 71 98 100 100 100 100 100 100 96 64 45 32 35 41 98 100 100 96 96 67 23 13 10 12 26 16 17 19 24 27 26 25 25 23 27 24 16 24 32 12 20 7
17 18 22 30 39 54 67 100 100 100 90 100 100 100 99 75 34 29 40 48 53 32 37 41 54 54 35 47 61 74 62 42 35 38 34 32 31 33 29 23 20 25 34 11 8 30 38
15 15 16 21 26 32 42 100 100 100 99 100 100 100 100 97 88 34 25 25 23 21 20 15 15 37 76 77 70 31 21 38 38 36 40 39 35 30 22 39 36 26 15 22 96 94 100
10 12 14 17 20 21 67 99 100 100 100 100 100 100 97 86 76 46 29 24 21 19 20 23 42 68 44 14 10 14 30 37 36 38 59 48 46 45 55 65 40 22 73 100 100 89 43
12 10 12 16 19 19 29 98 100 100 100 100 100 100 100 100 98 76 33 25 21 19 18 16 13 11 10 9 17 26 31 48 46 46 51 66 85 83 85 77 39 46 80 100 97 50 49
16 10 12 16 19 59 100 100 100 100 100 100 100 100 100 100 94 86 52 28 23 21 18 26 16 29 29 25 32 51 43 58 58 75 91 96 94 88 83 73 31 47 12 29 60 81 96
36 11 13 19 38 100 100 100 100 100 100 100 96 92 100 100 97 87 73 33 25 22 16 15 25 23 29 44 52 67 97 96 100 100 100 98 100 98 83 61 89 81 98 87 74 58 100

GFSGBSN_500_rhum_159.txt.gz
RH
64 62 60 67 64 58 54 53 49 49 46 49 50 56 47 54 60 53 46 42 45 38 35 32 41 62 62 48 37 33 42 46 41 38 36 33 29 24 18 23 28 27 24 21 21 24 21
74 87 65 86 77 88 89 58 67 68 47 40 47 56 60 62 59 56 55 51 66 67 63 57 50 49 62 70 57 54 53 46 44 41 32 26 24 23 20 28 30 27 23 19 18 18 17
80 83 80 94 98 96 99 62 69 98 86 52 48 52 58 67 68 65 59 57 58 70 68 62 60 63 60 69 68 63 56 54 49 44 38 27 26 24 25 32 31 34 29 25 16 13 14
87 93 100 83 74 78 78 70 69 96 93 64 64 66 57 54 61 69 66 66 58 62 66 67 61 51 63 64 71 71 65 60 58 52 44 34 28 27 27 35 39 39 38 33 23 20 19
91 90 88 86 81 87 88 80 75 91 84 90 95 92 95 98 79 83 84 83 71 65 68 66 61 44 52 64 72 74 71 69 64 58 51 42 32 31 29 29 35 42 35 36 33 32 35
96 96 96 94 94 92 90 84 99 97 88 70 87 75 83 83 88 92 93 88 81 77 74 70 62 56 45 51 54 72 74 72 71 65 54 45 36 33 35 33 32 33 33 32 36 42 44
98 97 97 98 98 94 94 92 91 92 93 94 94 94 96 98 95 89 92 88 79 80 71 75 67 66 56 49 58 60 53 58 56 51 51 45 37 40 45 42 37 31 37 42 42 47 48
93 96 97 98 97 98 97 97 98 93 94 96 99 96 95 95 94 93 84 78 77 70 58 70 69 61 68 62 59 65 58 57 54 53 52 47 38 47 42 42 43 42 42 46 46 54 59
98 99 98 97 98 97 96 98 98 97 99 94 99 100 97 94 90 85 89 94 97 71 52 61 62 53 55 51 51 60 57 57 63 57 57 51 48 50 46 43 54 56 55 53 48 44 40
88 95 98 98 97 98 97 99 98 100 100 98 96 98 100 96 92 94 100 99 90 80 59 48 48 50 48 48 42 53 57 53 60 63 63 54 59 61 52 54 59 53 49 46 46 55 56
30 41 38 45 52 62 79 94 94 98 98 97 98 98 100 94 90 94 100 96 94 92 64 55 51 55 58 55 48 49 59 55 60 63 63 59 57 57 56 53 51 48 50 74 78 49 42
69 45 44 49 73 76 78 58 64 80 87 80 84 84 85 87 86 74 81 85 84 78 63 62 51 45 42 40 43 44 45 49 60 67 67 66 70 71 60 58 58 66 80 88 76 53 37
22 22 23 24 25 24 24 24 23 23 26 48 62 51 57 57 61 72 72 72 73 58 55 50 34 29 35 39 54 68 65 64 74 73 76 79 76 88 90 86 86 90 96 80 51 43 34
17 19 20 20 18 17 17 18 18 17 17 17 18 19 20 24 30 44 50 56 48 37 34 54 34 24 37 63 70 81 79 75 86 96 95 80 59 90 88 83 89 88 73 58 45 33 29
33 34 38 42 49 43 40 37 38 41 36 33 28 24 22 22 20 22 29 28 22 25 39 36 30 36 37 98 72 71 76 90 97 100 91 80 71 91 92 91 83 71 68 41 26 28 26
57 56 57 63 66 66 65 55 55 54 55 57 53 42 41 40 30 24 23 24 25 33 35 36 40 44 49 76 71 73 71 84 86 88 92 86 73 78 75 69 60 52 43 30 30 42 24
69 64 59 55 51 46 45 46 46 51 62 71 70 61 58 57 54 47 41 37 38 46 34 33 37 56 68 85 80 76 78 100 74 72 81 90 76 62 69 60 53 50 41 25 26 56 59
79 75 72 67 61 50 40 36 39 40 52 61 86 80 80 73 63 58 49 48 52 48 37 33 34 62 100 84 90 87 83 99 88 84 84 85 82 68 67 58 16 11 14 16 39 23 30
88 76 65 64 56 45 37 41 41 37 43 76 91 100 94 89 76 67 61 56 54 55 52 40 40 75 100 89 75 82 81 94 100 91 78 79 76 73 61 30 12 13 18 15 15 17 29
67 63 55 49 40 40 44 65 94 84 72 93 97 100 100 100 84 82 70 61 53 55 50 42 40 74 96 95 91 80 92 97 91 87 86 80 70 32 37 16 11 14 16 14 14 14 20
46 46 40 41 45 47 57 73 93 100 100 100 100 96 100 100 92 96 81 73 63 63 56 66 68 86 99 96 89 83 89 94 90 68 33 33 34 12 8 9 10 12 10 12 12 16 23
74 73 75 62 64 89 90 99 100 100 100 100 99 100 98 95 100 100 100 93 94 68 65 63 70 97 100 87 79 85 84 80 47 26 26 10 12 16 32 19 15 18 17 20 23 27 26
59 59 63 69 75 88 97 100 98 100 100 100 89 100 98 95 100 100 93 81 84 90 96 83 80 98 98 87 74 75 54 26 12 14 15 19 31 37 41 30 29 29 28 29 26 30 34
39 37 38 43 53 65 81 90 96 100 100 100 100 100 99 93 85 96 100 93 88 93 97 100 99 100 98 77 74 17 12 19 41 59 46 37 34 41 39 33 26 26 35 36 29 28 14
24 24 25 26 32 42 56 78 96 100 100 100 100 100 99 94 96 95 100 99 54 49 70 70 79 89 87 81 58 56 71 69 66 29 31 40 40 40 38 34 30 25 68 44 26 32 20
17 18 18 19 22 27 38 61 90 100 100 100 100 100 100 99 88 100 97 95 93 53 31 32 30 26 61 48 28 58 63 31 20 22 43 49 50 55 54 48 34 64 70 44 71 52 99
10 13 16 17 16 19 26 38 68 99 100 100 100 100 100 99 98 86 74 91 100 76 38 24 22 23 27 48 70 50 25 11 12 32 40 38 44 56 75 65 60 68 62 49 81 99 100
44 14 10 14 16 16 20 28 46 98 100 100 100 100 100 100 91 63 69 88 97 81 39 32 32 30 25 19 13 11 9 16 27 50 59 59 75 98 100 83 52 64 54 56 81 63 54
76 60 24 10 14 15 17 22 36 90 100 100 100 100 100 94 75 65 70 99 97 54 38 30 43 64 73 37 20 18 21 41 75 100 100 100 100 100 99 93 67 68 92 100 100 98 95

GFSGBSN_500_rhum_162.txt.gz
RH
83 78 73 69 64 62 72 64 61 56 54 52 47 48 45 48 48 45 44 49 49 44 47 47 50 51 42 42 54 57 43 38 49 47 42 39 35 27 26 21 24 27 26 23 22 22 22
88 81 77 74 66 62 59 62 63 55 60 57 55 85 77 50 50 53 54 52 52 49 46 47 48 52 52 58 49 55 72 60 58 53 49 45 44 36 25 26 20 24 31 28 26 20 18
91 85 80 80 77 78 71 80 80 76 89 79 57 76 94 82 58 53 52 53 54 48 45 48 45 48 56 53 52 55 63 68 64 62 59 57 53 43 35 29 24 26 29 34 26 24 20
92 88 84 82 82 98 92 89 79 84 86 85 63 75 92 85 77 87 70 58 52 61 56 50 48 50 53 54 50 47 56 61 68 65 66 63 56 52 45 37 28 27 28 36 34 31 29
96 96 91 85 88 89 90 98 92 70 72 75 74 73 99 99 89 85 88 60 58 66 73 72 58 62 56 53 58 51 52 51 58 63 61 59 58 57 49 38 34 34 29 27 34 29 35
98 95 96 97 93 95 93 89 86 84 77 77 80 80 83 82 86 79 79 70 72 76 75 72 63 67 62 59 65 65 56 51 49 48 50 48 41 44 49 41 39 35 31 31 33 35 34
96 97 94 97 98 95 95 97 96 94 92 86 88 83 92 85 84 73 73 70 74 67 70 68 62 59 65 59 62 66 57 59 57 54 51 49 43 51 54 47 41 37 35 34 40 40 40
98 95 97 94 96 95 95 96 94 94 86 91 90 89 91 89 81 77 72 66 79 73 49 61 63 51 64 49 57 57 51 50 50 51 52 50 43 61 52 50 44 43 40 38 42 50 51
93 98 98 99 98 99 98 96 97 97 98 93 91 92 91 94 85 82 94 85 81 68 55 61 63 54 60 57 48 55 46 43 43 42 48 44 52 56 54 52 52 50 51 48 45 49 60
78 69 65 52 50 72 84 93 97 98 98 98 100 98 97 98 94 95 98 96 83 76 55 47 56 56 56 54 50 51 46 42 42 42 43 37 47 54 60 56 60 57 62 63 62 58 55
94 94 82 75 74 85 63 48 52 76 75 85 95 97 94 94 92 96 84 86 84 80 64 61 61 63 61 54 51 45 40 32 31 32 38 42 45 44 51 63 63 59 58 56 54 51 49
74 67 75 73 71 76 73 75 65 61 67 61 52 51 47 53 56 42 55 61 51 62 52 60 60 57 48 45 35 30 26 26 38 41 39 42 57 48 63 64 66 68 66 61 58 61 66
30 30 25 24 25 25 28 30 35 39 36 31 28 26 26 24 21 23 34 40 43 36 44 46 36 29 35 34 29 29 29 37 58 62 62 55 59 66 67 64 71 80 84 92 99 100 94
17 17 17 16 17 17 17 17 17 16 16 16 17 17 17 19 20 20 20 24 21 19 30 76 47 33 29 33 36 38 31 38 74 87 82 75 78 79 80 83 90 96 94 98 97 87 82
18 20 21 22 21 22 24 28 27 27 27 25 26 27 33 32 32 30 25 21 18 18 25 35 39 38 26 29 36 39 34 42 67 94 77 70 70 84 96 95 100 100 99 100 98 80 68
31 34 36 36 38 41 46 49 48 49 53 47 51 53 58 53 55 54 46 37 31 26 24 26 27 28 26 28 35 33 31 38 47 57 60 51 45 70 89 92 99 100 95 99 98 92 66
63 63 64 63 64 65 69 69 69 67 62 56 52 48 59 71 72 67 52 51 50 48 40 33 30 32 34 32 31 28 32 37 44 62 74 69 62 58 86 100 100 100 84 86 79 72 53
87 89 87 86 89 83 85 90 89 78 67 57 54 51 53 58 65 57 55 64 68 64 55 50 45 43 41 39 36 36 39 44 59 82 92 80 76 57 68 90 83 78 90 76 61 44 41
97 97 98 100 100 100 100 94 82 71 65 64 66 57 49 45 42 42 62 73 81 79 65 60 54 52 53 45 45 42 48 72 81 83 83 77 63 58 56 70 78 70 39 42 48 44 38
85 86 84 84 95 99 100 100 100 100 98 97 91 75 55 49 42 47 64 76 77 91 69 75 68 61 56 49 49 45 50 84 100 99 88 82 81 76 70 71 48 29 15 17 21 21 25
48 46 46 49 51 55 72 80 92 82 82 100 99 87 81 65 81 86 100 92 100 100 80 78 76 77 70 59 48 43 44 69 96 100 85 86 84 78 54 27 15 13 10 8 13 27 31
50 48 58 58 48 45 48 61 58 66 81 100 99 100 88 89 100 100 100 83 100 100 80 91 99 100 96 76 68 58 60 65 79 94 92 90 55 28 31 16 17 37 30 16 16 17 19
99 98 93 88 87 80 73 84 84 92 100 100 99 98 99 100 100 100 92 95 99 100 99 95 100 100 98 87 83 81 79 88 86 80 47 32 19 25 43 34 40 45 36 33 33 31 29
75 78 78 79 79 81 82 86 97 100 100 100 100 100 100 98 100 100 100 93 91 100 100 100 100 100 100 94 88 82 91 84 69 34 12 16 25 43 49 42 42 42 38 32 28 26 31
51 51 53 56 58 60 62 67 71 88 95 96 100 100 100 100 100 99 95 98 90 100 99 99 100 100 92 85 88 91 96 87 32 16 45 94 54 48 48 42 35 35 40 34 30 33 37
25 28 31 34 41 46 45 48 52 64 85 100 100 100 100 100 97 100 91 88 82 85 99 98 99 86 85 83 87 88 85 68 79 100 94 68 37 48 43 44 47 63 74 72 55 48 80
12 14 16 19 24 29 34 35 38 49 54 78 99 100 100 100 100 97 83 65 65 73 93 100 82 66 52 43 50 68 63 68 80 46 14 29 36 34 44 46 56 92 94 59 44 44 82
84 42 12 10 16 20 24 28 29 30 58 67 100 100 100 98 100 97 70 59 53 66 96 86 69 81 53 28 28 26 44 69 45 16 37 42 41 54 76 84 72 93 94 79 65 63 68
100 100 88 27 9 16 19 23 26 25 59 89 100 100 100 100 100 92 69 61 42 70 94 97 74 43 56 50 42 40 34 20 68 57 78 100 100 100 100 94 98 84 81 88 87 94 100

GFSGBSN_500_rhum_165.txt.gz
RH
61 72 68 63 65 69 65 65 59 56 56 55 53 54 51 52 47 44 42 36 37 37 39 41 40 40 52 53 50 46 51 52 42 30 42 54 47 44 38 34 28 18 23 25 26 26 25
68 64 64 66 68 69 67 64 60 58 56 56 58 54 62 53 51 65 65 43 39 39 40 40 42 43 40 44 48 46 49 53 56 52 52 58 58 52 52 44 36 30 24 28 28 31 26
73 68 72 71 76 72 70 70 65 63 56 53 59 56 68 81 73 54 76 64 47 44 46 45 41 42 40 42 47 43 46 44 51 63 57 55 59 58 58 54 47 42 32 28 31 27 19
80 78 77 78 80 81 78 74 69 71 71 63 68 68 72 75 76 62 57 78 67 63 54 53 51 52 57 51 49 44 46 46 42 49 55 59 54 57 61 56 48 47 38 34 30 24 23
87 85 80 78 83 84 83 83 77 73 72 68 64 72 67 66 61 55 62 69 61 58 55 54 51 58 64 61 58 57 52 48 47 46 42 46 44 44 47 44 44 42 36 33 35 29 28
89 88 86 88 85 82 81 80 82 83 81 77 72 75 78 78 76 71 65 60 71 66 60 55 55 60 60 65 65 58 56 56 52 53 55 51 45 44 51 50 46 42 37 38 39 36 34
97 94 94 91 93 93 90 89 85 84 78 78 78 80 73 78 77 71 74 68 69 60 61 62 56 56 67 59 62 68 60 55 56 54 51 51 50 55 58 48 47 46 44 41 46 46 44
94 94 96 96 93 93 92 89 88 85 82 82 78 73 76 72 74 73 73 72 72 54 45 65 63 54 63 59 58 73 63 57 52 49 46 43 40 44 42 41 41 43 44 46 48 54 56
99 98 95 92 91 88 86 94 91 92 91 83 83 80 80 78 75 75 74 75 71 54 44 43 57 57 64 61 54 67 58 59 56 52 47 42 39 40 40 42 44 46 48 50 53 56 62
100 97 99 95 97 94 84 79 86 88 87 82 93 92 95 90 87 80 85 100 94 76 61 50 51 48 49 52 53 57 57 53 51 49 44 39 36 33 31 32 46 40 51 46 46 49 54
99 96 96 97 94 89 90 93 98 88 84 88 84 88 71 82 87 89 74 80 79 80 59 57 52 53 51 47 43 41 43 41 40 41 40 38 36 33 32 43 47 41 46 52 51 52 55
84 76 76 64 66 84 87 80 76 72 70 57 38 45 46 44 39 37 40 36 40 45 41 48 49 44 27 26 29 33 31 30 32 31 32 30 31 30 39 47 50 51 62 68 67 65 62
90 79 63 53 44 40 46 49 38 39 32 29 29 29 33 41 40 39 34 34 37 35 33 27 24 20 16 19 21 29 36 39 36 34 33 35 49 72 73 68 70 70 68 64 64 71 83
69 69 52 33 26 23 22 24 25 24 24 24 23 22 26 26 27 26 26 22 19 18 19 21 21 18 15 16 17 24 28 32 35 31 31 35 47 82 82 90 91 85 88 90 95 98 90
38 27 22 21 20 19 20 21 20 21 21 20 21 21 23 22 23 24 25 22 19 22 26 25 24 22 21 19 20 24 26 28 31 35 29 32 31 50 68 88 99 100 100 100 100 85 89
24 22 20 19 19 20 21 23 24 31 38 37 42 39 42 40 44 47 46 37 35 41 47 44 42 37 30 25 23 25 29 27 31 37 42 40 39 56 78 92 100 98 100 100 100 94 79
51 46 42 40 38 41 39 40 46 55 68 60 52 58 50 60 68 65 48 42 46 56 64 59 52 49 44 41 33 28 29 29 30 29 33 32 30 36 53 79 100 100 100 100 100 94 87
77 77 79 76 72 76 73 75 78 81 95 86 81 76 77 80 80 70 60 60 60 58 81 64 63 62 60 56 49 44 41 40 37 38 37 44 41 32 44 77 100 100 96 100 100 83 90
94 92 93 92 90 88 89 90 95 100 100 100 99 98 98 92 81 76 67 60 59 56 68 74 65 67 69 64 59 54 49 46 44 46 49 49 52 43 43 61 78 100 100 96 90 86 78
88 90 91 92 94 92 94 99 100 100 100 100 100 100 88 84 78 77 69 69 73 65 58 92 81 76 73 79 71 64 60 62 61 62 70 63 51 54 52 67 82 86 86 69 57 47 38
79 73 73 72 75 76 82 90 92 95 99 100 100 97 100 89 56 82 100 87 81 73 73 98 91 80 84 78 78 72 68 74 72 67 68 62 51 63 76 88 87 77 63 34 16 15 14
47 44 44 44 44 45 45 47 54 68 85 100 94 96 100 94 94 90 93 75 81 91 98 100 94 99 97 87 82 80 90 85 75 73 84 84 76 84 74 79 70 49 51 27 14 14 15
60 62 65 63 67 67 62 65 73 88 100 100 100 98 100 98 100 100 83 90 100 100 84 94 100 100 97 92 97 94 100 100 96 86 100 100 90 82 64 59 45 43 32 32 39 40 38
93 94 97 100 100 100 100 100 100 100 100 100 100 100 100 100 100 95 100 100 99 100 79 90 100 100 99 100 97 98 100 100 99 93 100 100 99 92 70 57 46 45 45 45 43 39 35
73 74 74 76 80 86 95 100 100 98 96 98 98 100 100 100 98 100 100 100 100 93 68 62 75 98 100 100 99 97 100 100 100 100 95 75 49 48 50 60 58 50 50 45 35 41 46
52 54 57 57 60 64 68 78 87 90 91 95 89 97 100 100 99 100 100 100 99 79 79 63 76 100 100 100 100 95 94 99 100 100 85 46 41 53 75 50 48 46 91 74 62 57 49
22 24 26 29 35 41 49 56 66 72 64 74 87 97 100 100 96 100 100 100 98 83 58 58 67 100 100 100 100 98 97 96 100 97 95 99 90 78 63 60 42 53 98 82 65 69 48
25 18 14 14 17 22 30 38 46 56 57 55 75 88 98 100 100 100 97 100 82 70 68 87 99 95 100 99 93 90 65 42 84 70 96 88 32 21 32 37 45 60 70 94 78 89 96
96 97 86 79 43 12 16 24 31 44 48 44 72 68 99 100 100 100 100 98 98 63 56 78 92 100 100 86 65 45 31 28 35 67 93 38 42 95 100 100 100 99 81 85 84 92 100

GFSGBSN_500_rhum_171.txt.gz
RH
60 55 54 51 48 48 49 50 50 45 38 34 38 42 43 47 52 51 48 44 44 44 49 49 49 48 39 36 34 32 32 33 35 36 36 32 37 46 34 24 40 44 41 41 39 36 30
62 60 61 58 57 53 48 47 50 45 42 39 40 46 40 49 52 51 51 44 41 43 49 56 65 54 52 42 38 41 38 35 36 37 35 38 36 33 49 46 38 46 47 46 47 45 40
66 61 60 60 59 60 60 54 52 52 48 45 48 50 54 57 57 57 53 46 43 43 50 46 50 59 62 55 57 56 51 51 44 42 38 37 43 39 36 37 53 52 49 48 50 52 44
69 66 67 64 58 63 68 66 61 58 56 56 57 55 64 60 61 60 55 51 49 50 48 50 51 50 60 58 60 58 53 56 52 49 44 39 42 46 44 44 35 34 40 48 47 43 40
68 68 67 76 71 69 70 72 67 67 69 66 63 60 58 62 68 65 64 58 53 52 53 52 49 46 52 53 50 53 59 60 54 51 50 45 42 46 47 49 47 44 38 37 38 40 38
71 74 70 71 73 71 72 74 72 68 65 64 66 66 65 65 61 63 61 60 54 51 49 48 48 46 49 54 51 53 56 57 57 57 55 50 45 44 50 47 45 48 52 50 51 49 48
78 76 76 72 71 70 66 62 62 62 60 58 55 57 58 60 57 62 64 61 58 50 47 48 50 42 46 46 45 57 57 56 55 54 53 53 52 52 48 47 45 42 39 38 39 40 35
73 76 75 73 68 64 65 62 58 58 52 58 62 61 58 56 56 55 56 60 60 54 46 61 58 53 51 44 47 58 57 55 54 54 50 47 47 56 55 52 49 47 45 43 42 41 38
82 76 71 72 71 67 65 68 68 69 65 66 63 64 58 53 54 52 55 54 53 52 48 39 59 59 58 56 54 55 54 52 49 48 49 45 46 46 47 50 50 48 46 46 42 41 39
92 78 78 83 88 84 79 84 90 85 79 76 70 64 64 66 62 56 56 53 56 53 48 40 43 48 52 53 48 44 41 44 45 43 43 43 44 41 40 46 49 46 48 47 47 43 40
85 83 94 98 98 99 92 84 81 85 74 70 66 67 64 64 62 64 61 64 70 64 48 44 43 49 52 53 53 46 40 35 38 36 37 40 36 34 40 41 43 46 44 51 48 49 45
98 99 96 95 96 95 85 79 84 85 80 78 76 77 73 70 63 56 54 59 62 63 54 59 55 52 52 52 50 43 34 27 21 20 21 23 20 21 25 30 37 44 46 52 56 57 51
94 96 96 97 96 95 91 87 84 93 98 91 83 77 74 67 61 52 49 50 55 49 53 51 52 50 45 50 47 39 29 21 17 15 14 14 14 15 20 30 42 49 55 55 52 54 54
98 96 97 100 99 92 87 88 83 84 82 63 52 45 56 52 47 44 41 44 34 36 44 45 52 53 50 44 36 28 22 20 19 20 19 18 18 17 18 26 41 47 57 63 58 49 39
97 98 98 96 96 98 97 93 93 84 76 60 49 33 37 48 33 32 26 24 23 22 24 27 26 25 23 22 23 23 22 25 35 34 32 29 25 24 26 30 37 50 54 61 66 51 37
97 97 94 92 92 97 98 95 93 84 73 49 38 28 24 32 29 27 22 18 18 20 23 23 24 24 24 26 32 35 35 37 42 46 45 40 34 32 34 38 44 52 57 62 70 56 43
96 95 98 99 93 90 91 95 92 66 48 41 34 30 26 28 30 27 25 23 25 30 42 44 51 39 38 41 49 50 48 52 53 54 56 53 46 42 44 46 61 76 74 71 77 65 59
91 90 95 99 95 96 89 95 85 75 48 41 42 41 36 42 58 47 41 45 53 60 71 79 73 70 69 70 68 69 69 73 69 68 67 64 60 53 52 55 57 70 77 93 100 68 78
100 99 95 84 77 74 79 73 73 66 70 79 79 80 74 83 72 75 74 70 82 83 88 100 98 96 91 88 95 87 86 85 81 79 78 75 73 68 63 65 66 65 67 72 78 77 70
85 82 73 75 73 69 70 73 78 80 87 98 98 95 89 96 94 88 83 78 77 88 94 100 100 100 99 97 99 87 90 88 83 87 89 85 82 80 74 77 78 73 70 70 71 66 70
76 70 73 72 69 73 74 77 80 88 97 99 100 87 91 100 100 98 99 92 90 97 100 100 96 99 100 83 85 86 91 94 93 100 100 100 97 99 88 85 85 78 74 77 72 71 76
72 67 66 63 59 60 61 71 80 81 94 100 100 100 97 100 100 100 100 96 96 98 100 100 98 100 100 84 90 78 88 85 90 100 100 100 96 100 90 90 92 78 74 78 76 85 91
66 64 62 63 67 69 72 77 83 97 99 100 100 100 100 100 100 100 100 100 100 100 100 100 100 100 100 97 90 89 95 97 95 100 100 100 100 100 84 91 90 72 64 73 81 93 98
43 42 41 42 50 62 75 83 96 99 100 100 100 100 100 97 96 100 100 99 100 99 100 100 100 100 100 99 100 88 84 88 96 100 100 100 100 100 95 95 70 52 55 81 91 79 81
39 41 44 53 62 75 83 94 100 100 100 100 100 100 100 97 95 94 100 100 98 100 100 99 100 100 100 99 99 81 59 71 75 100 100 100 100 100 100 85 60 56 93 99 85 78 85
69 74 78 77 80 81 86 93 99 100 100 98 100 100 100 96 82 88 86 99 99 100 95 92 100 100 100 97 100 72 63 76 76 88 100 100 100 100 92 81 64 74 92 97 80 74 88
68 68 66 64 64 64 67 72 77 85 99 100 100 100 100 100 84 80 81 72 100 100 97 77 96 100 98 94 86 64 70 88 100 100 100 100 100 88 88 81 56 78 100 95 79 89 92
40 35 30 24 21 20 22 27 37 54 77 92 98 100 100 91 85 86 100 100 100 93 100 100 100 99 100 91 63 54 66 96 100 100 100 100 97 86 89 82 66 78 100 95 79 71 67
29 27 46 69 69 60 45 26 17 24 35 55 71 94 100 86 75 89 92 100 100 100 100 100 100 100 96 70 55 52 57 92 100 100 100 92 98 91 77 72 87 91 93 98 97 98 99

GFSGBSN_500_rhum_174.txt.gz
RH
68 65 58 55 52 54 50 49 45 42 40 40 39 38 35 35 35 36 37 34 45 45 47 46 44 55 57 52 41 39 35 34 35 33 32 34 38 39 36 32 42 35 28 42 42 39 39
69 65 59 55 57 56 52 49 48 49 51 51 48 44 41 42 39 38 41 36 38 47 47 44 45 49 55 52 51 49 45 44 49 43 37 37 38 38 40 40 36 44 45 41 46 44 44
72 66 60 58 57 58 53 49 48 49 51 55 56 53 51 47 47 46 39 39 39 39 46 51 45 45 47 50 52 53 55 56 52 51 52 47 43 40 38 42 42 41 38 48 52 49 47
72 68 67 74 68 58 56 56 52 46 52 50 50 52 49 50 50 49 44 37 34 36 41 42 47 47 46 43 45 46 49 49 48 49 48 49 46 43 41 42 41 46 46 43 33 48 44
76 78 73 77 75 67 57 56 60 62 55 48 45 46 47 47 45 44 47 46 39 38 38 40 41 42 44 39 38 40 46 52 50 48 46 45 46 46 45 42 40 40 51 48 48 46 46
76 78 77 73 71 64 61 54 59 55 54 51 49 50 51 49 48 49 46 45 45 41 39 37 33 36 42 46 46 50 52 52 56 55 50 51 50 50 50 47 45 42 43 52 56 48 56
81 83 78 70 71 66 67 62 58 57 55 52 50 52 48 53 52 51 48 42 37 34 32 33 34 29 39 40 49 55 54 53 53 55 52 50 53 52 51 48 47 46 43 46 50 48 41
90 92 89 87 74 75 70 73 68 68 62 57 54 52 53 51 47 44 42 39 38 33 29 43 38 32 34 40 47 57 59 54 52 53 52 51 49 49 47 48 51 50 48 46 45 45 42
96 92 87 89 88 83 82 66 68 61 56 56 55 54 51 53 51 50 48 46 44 40 34 31 37 42 44 47 49 52 54 52 51 51 49 48 50 49 47 48 47 47 47 50 50 51 47
92 96 84 85 98 93 89 86 80 65 63 61 59 63 64 59 55 53 54 50 48 44 42 36 35 40 42 44 47 47 48 48 47 46 43 41 44 47 47 47 48 46 46 47 51 54 55
98 95 90 92 95 89 97 82 76 80 79 76 75 66 61 59 62 61 58 58 56 56 44 41 40 41 46 50 53 54 52 47 44 42 45 38 32 28 27 30 32 39 40 45 48 49 47
98 98 98 96 90 92 92 87 94 96 91 83 76 69 62 73 74 69 65 62 52 53 48 48 44 40 40 42 44 44 47 48 46 41 39 36 34 31 20 18 19 18 17 18 23 29 23
88 87 88 89 89 92 96 99 98 99 93 94 87 80 74 77 76 66 53 46 46 40 39 34 36 38 36 38 41 41 33 33 44 39 34 28 20 16 16 16 16 17 20 22 20 22 34
98 99 98 96 99 98 96 94 90 92 94 78 84 79 87 88 79 70 66 56 51 40 35 30 30 34 36 36 37 38 35 34 31 28 24 22 20 17 17 18 22 20 26 32 30 60 70
99 99 97 99 97 98 96 96 98 90 94 97 96 86 74 90 94 87 67 57 50 36 32 29 28 26 26 24 23 22 21 20 21 21 21 24 26 28 31 28 25 27 31 36 39 30 22
97 97 97 96 95 96 98 97 96 95 93 92 92 84 78 78 83 88 78 60 46 35 28 27 24 23 22 23 21 22 23 21 20 26 34 40 38 43 42 40 36 33 37 41 52 42 65
96 97 96 95 95 94 92 84 84 75 73 90 96 87 77 80 82 89 86 68 44 34 30 29 29 28 28 30 34 36 34 40 35 37 44 51 52 55 54 51 52 49 43 46 58 74 80
93 93 95 95 89 89 93 92 92 100 100 100 98 91 83 73 64 54 48 45 39 36 41 52 56 60 61 65 63 58 55 66 59 63 66 74 74 69 72 66 62 62 62 77 100 99 98
99 99 99 100 100 100 100 100 100 99 99 92 84 82 72 67 58 55 53 50 53 48 61 76 90 94 98 92 97 82 83 82 89 93 88 89 90 87 84 83 74 70 70 70 83 78 66
100 99 94 98 100 99 100 97 97 98 98 93 82 74 65 68 62 65 80 74 77 78 80 88 99 100 100 96 100 86 91 96 100 100 100 100 100 99 100 100 100 100 88 81 82 77 76
98 92 89 86 79 80 82 72 70 75 70 74 74 71 79 84 82 82 96 96 95 97 95 100 100 100 100 98 100 98 100 100 100 100 100 100 100 100 91 97 97 97 88 94 95 85 99
77 77 73 68 67 62 61 69 66 68 72 82 76 82 98 100 100 100 100 100 100 100 100 100 100 100 100 99 99 98 98 97 90 96 100 100 98 100 91 100 100 96 87 92 94 92 98
70 67 62 58 58 59 63 63 65 68 68 75 95 91 100 100 100 100 100 100 100 100 100 99 100 100 100 100 100 96 93 92 91 95 99 100 100 100 86 100 100 83 80 84 87 87 90
62 58 57 57 57 54 53 54 60 78 92 99 100 100 100 99 100 99 100 100 100 100 100 99 100 100 100 100 100 100 98 90 76 66 79 93 100 100 95 100 96 59 59 57 57 83 95
56 46 42 37 31 31 34 38 44 51 59 70 84 95 98 94 99 86 93 95 98 100 100 94 100 100 100 100 100 100 95 88 70 61 65 78 100 100 98 100 82 68 49 60 81 85 94
22 25 32 40 48 55 64 70 74 81 88 95 100 100 100 96 73 83 79 80 82 92 100 100 97 98 100 100 100 99 97 91 95 67 77 90 89 98 96 100 91 66 61 89 93 88 92
37 44 53 58 62 67 70 71 71 75 81 84 90 100 100 90 90 100 100 93 96 94 96 100 100 100 72 96 100 99 92 79 81 61 57 86 98 88 94 92 72 69 87 84 78 97 95
32 37 38 39 42 46 46 41 37 38 43 53 66 83 90 82 87 98 100 100 100 100 100 100 100 100 100 100 100 95 97 84 70 87 72 84 93 90 93 97 64 63 69 80 91 100 99
34 31 30 29 30 35 30 46 59 47 30 21 25 42 71 81 73 88 99 100 100 100 100 100 100 93 100 100 100 100 100 84 80 81 95 100 100 100 92 88 79 82 79 87 96 92 94

GFSGBSN_500_rhum_177.txt.gz
RH
49 48 57 65 59 55 54 50 46 42 43 42 42 42 42 40 38 35 33 33 30 31 38 38 34 32 35 38 39 44 41 39 42 40 40 39 34 30 31 38 39 38 39 42 33 36 44
45 51 64 67 60 57 53 49 46 43 41 40 39 37 37 36 36 36 34 33 32 34 37 33 34 36 33 38 42 41 43 42 41 44 45 44 42 40 38 36 34 38 44 40 46 45 46
40 56 72 70 62 57 52 49 47 41 40 38 38 37 36 34 32 30 30 31 32 29 32 33 28 30 36 36 32 38 41 44 44 45 46 44 45 44 42 43 39 41 40 47 45 45 55
52 65 77 69 66 62 62 60 52 49 45 43 45 41 44 41 38 35 33 33 32 34 36 36 33 28 32 33 31 31 33 34 39 40 49 50 49 45 42 41 41 39 43 49 58 40 48
67 82 80 71 65 65 62 58 61 53 53 47 45 56 54 48 41 38 36 34 35 34 34 36 34 31 29 29 31 30 32 38 43 41 45 48 48 50 46 43 41 43 41 52 72 41 58
84 85 84 80 72 61 58 58 63 63 61 61 52 51 53 55 51 45 40 37 35 32 35 33 30 29 28 26 29 28 26 30 38 44 45 47 50 52 54 51 46 48 57 50 51 67 43
88 84 84 88 88 78 68 68 76 78 72 66 62 57 48 48 46 46 44 43 33 32 33 32 29 27 31 27 30 30 28 26 27 36 45 45 43 54 61 57 47 47 48 44 46 55 56
77 72 75 77 85 77 73 82 85 80 69 72 69 63 59 50 48 50 47 47 43 36 29 38 33 36 35 31 31 34 36 32 30 36 41 41 47 52 51 51 52 48 45 44 45 49 51
91 86 79 77 81 83 85 84 79 78 82 73 80 74 62 55 49 46 48 49 46 42 36 32 35 40 43 42 39 38 38 37 37 40 42 43 48 42 46 48 50 49 48 47 46 53 54
87 79 85 91 78 75 81 88 89 89 82 85 85 78 71 56 52 55 56 52 50 44 42 38 39 42 40 41 39 39 44 46 46 49 47 46 44 46 45 44 43 39 41 38 44 47 47
87 98 95 95 97 92 85 92 95 87 88 84 84 75 64 62 66 64 65 58 53 58 59 49 40 40 42 40 38 32 36 32 33 37 39 45 39 37 40 42 38 32 30 26 23 25 30
97 94 99 98 94 98 96 92 87 86 84 78 75 73 78 74 72 72 68 62 61 65 61 54 48 43 39 34 33 31 28 23 22 30 36 33 40 34 38 39 37 33 29 20 16 15 17
94 98 100 98 95 90 81 82 87 76 75 82 90 90 77 68 74 71 69 70 71 63 66 64 56 51 47 43 36 32 25 21 20 24 24 29 26 26 24 22 22 22 18 16 18 69 43
97 96 97 97 96 94 92 89 94 90 91 92 89 83 85 82 75 74 85 86 70 63 75 69 64 61 55 43 37 32 26 22 19 20 18 20 19 48 23 16 20 21 16 24 87 93 88
97 96 97 97 97 98 97 96 98 98 92 93 93 87 90 90 84 78 88 84 64 59 57 68 76 80 72 53 40 34 28 23 20 21 18 17 17 41 19 20 22 24 25 31 36 41 87
98 97 97 97 98 97 97 96 97 96 95 95 94 94 86 79 77 77 75 61 75 79 83 89 89 87 88 92 50 33 26 24 25 23 24 24 26 22 89 50 24 35 46 72 100 64 100
96 97 97 96 97 96 96 96 96 96 93 86 90 86 72 80 95 91 76 80 87 94 86 73 70 56 58 51 41 37 32 32 50 36 40 35 63 45 100 99 88 100 73 84 72 84 100
98 99 98 97 95 94 95 96 94 94 95 95 90 88 84 96 100 95 84 96 88 86 75 62 55 56 50 49 50 49 45 53 77 74 72 76 99 75 84 100 100 100 100 100 100 94 100
96 95 95 94 89 85 93 97 100 100 100 100 99 92 89 90 89 82 79 82 80 74 72 64 56 54 57 66 80 80 77 89 95 97 100 95 100 98 89 100 100 100 100 100 99 100 88
86 86 91 88 84 94 99 100 100 99 94 97 89 84 78 76 72 67 60 60 61 64 62 73 73 88 95 100 100 100 93 91 100 95 100 100 100 100 99 98 100 100 100 100 100 100 93
89 89 90 82 83 86 92 88 88 90 85 75 69 64 63 59 56 56 54 55 56 61 96 97 90 92 100 100 98 100 100 99 98 100 100 100 99 100 100 99 100 100 87 100 99 100 100
93 95 91 90 90 92 91 90 77 68 59 52 51 49 53 56 66 69 80 73 87 91 100 100 100 100 100 99 100 100 100 100 100 100 100 100 94 100 92 100 100 100 99 100 100 99 100
86 81 79 80 78 72 67 61 56 51 50 55 64 68 86 74 90 100 99 100 100 100 100 100 100 100 100 94 100 100 100 100 100 100 100 100 100 100 80 100 100 94 65 86 70 68 100
70 68 65 63 61 58 58 56 54 57 64 67 69 66 66 69 85 94 100 100 100 100 100 100 100 100 100 94 98 100 100 100 100 91 85 88 99 100 80 97 100 66 96 94 100 84 99
72 66 60 54 49 46 41 35 32 28 28 29 35 42 52 52 56 55 70 90 100 100 100 91 100 100 100 100 100 100 100 97 84 86 78 69 72 97 83 82 84 62 95 96 83 74 99
46 36 29 22 17 17 20 26 35 46 55 60 68 79 88 97 63 89 80 78 82 91 90 89 95 100 100 100 100 99 96 98 97 91 80 74 71 83 73 78 84 94 97 91 100 66 96
16 15 18 21 25 31 40 49 57 61 67 71 70 80 94 91 61 84 88 98 100 100 100 100 100 100 100 100 90 85 90 100 96 95 92 98 93 65 79 82 72 85 100 49 81 95 59
9 12 15 18 24 32 42 47 51 50 48 48 51 60 71 76 65 77 91 95 100 100 100 100 100 98 100 100 93 71 71 93 88 98 92 90 74 77 96 96 89 100 98 76 78 56 64
47 45 34 34 37 37 36 36 36 41 36 29 33 34 27 42 41 55 62 80 95 100 99 97 99 100 100 100 100 100 92 100 98 100 100 84 66 63 61 66 93 97 99 83 70 61 72

GFSGBSN_500_rhum_183.txt.gz
RH
28 28 27 30 37 58 33 32 34 55 60 54 48 45 39 36 31 28 25 25 25 22 22 23 23 20 18 13 14 14 17 16 15 18 18 19 23 22 27 26 21 34 40 40 37 38 41
28 27 27 28 30 44 43 35 34 54 61 56 49 44 42 41 39 35 31 28 26 24 23 23 23 25 25 23 20 17 17 17 16 15 16 16 17 19 16 21 28 20 30 42 42 39 38
29 27 27 27 34 72 43 37 42 62 62 58 52 47 46 43 42 41 41 36 36 31 26 21 24 23 26 25 24 21 19 18 17 17 15 14 14 18 17 17 24 26 18 32 45 45 43
29 27 26 27 33 70 50 40 71 73 68 60 59 51 50 51 50 49 47 40 36 36 35 24 26 26 26 30 29 27 23 21 22 21 18 16 16 17 17 18 20 26 18 20 37 40 40
30 30 28 32 58 88 45 52 85 84 76 65 60 52 48 47 48 49 53 51 40 39 43 41 33 29 28 34 31 31 28 25 24 24 22 19 17 18 21 21 20 29 20 30 26 36 38
74 64 63 64 89 73 46 78 89 89 83 70 69 64 60 56 57 54 54 53 57 41 44 55 46 42 36 31 26 35 33 29 28 25 24 24 22 19 27 32 28 28 34 32 32 46 47
83 90 84 93 73 51 59 87 96 96 78 73 65 63 65 66 61 53 51 52 50 43 52 51 49 38 46 40 34 31 30 29 30 27 29 32 27 32 30 32 35 35 33 35 30 53 75
97 93 92 82 63 66 80 95 98 93 86 79 80 72 71 69 68 63 57 61 58 43 37 62 47 42 41 40 36 32 33 33 34 34 33 34 36 39 36 36 31 30 29 29 31 36 49
98 96 86 74 71 77 89 90 97 92 94 90 85 91 83 78 75 65 69 70 68 61 44 44 46 47 44 39 37 37 38 42 43 40 36 32 33 36 34 28 27 26 25 24 24 22 20
92 97 80 88 87 88 83 86 90 92 93 93 95 87 84 74 78 82 80 74 68 68 52 46 46 49 45 43 44 45 43 44 44 42 37 32 32 33 31 34 32 24 27 24 19 16 14
96 84 79 88 99 83 80 85 87 91 95 94 95 97 88 77 73 96 86 80 78 80 63 55 52 59 52 50 48 48 45 41 40 40 42 39 39 39 36 33 30 29 29 22 19 21 14
90 90 88 91 88 88 96 89 91 92 96 96 96 96 96 96 92 100 90 89 90 83 76 78 59 53 49 53 55 51 47 43 36 32 35 35 49 54 51 45 39 31 23 22 22 25 18
98 94 98 97 96 97 97 94 94 90 91 97 96 96 96 95 92 100 98 92 92 78 86 79 61 60 62 62 58 57 43 28 30 32 29 26 17 36 65 62 66 67 53 50 42 26 26
89 96 95 94 98 99 96 97 97 96 96 96 96 96 96 98 97 96 94 96 86 78 81 80 81 70 64 59 49 50 54 32 47 83 75 62 23 33 43 58 56 50 75 64 56 38 34
94 98 98 98 94 97 98 96 97 96 96 96 96 96 100 96 98 96 96 88 91 90 92 85 74 76 59 78 80 53 53 39 54 78 100 100 60 27 33 31 54 43 64 93 100 90 100
94 90 89 92 92 97 97 97 98 98 97 97 97 95 99 97 96 98 96 96 96 100 100 100 78 64 57 62 79 80 55 42 61 86 100 95 100 43 41 47 39 65 68 74 98 100 88
99 98 96 98 98 97 99 98 95 97 98 99 99 97 100 98 98 98 94 93 97 100 100 100 94 80 81 74 86 78 64 53 60 69 95 88 98 84 63 42 46 42 64 92 100 95 100
95 96 97 97 98 97 96 98 93 98 98 100 99 97 96 97 98 95 92 100 94 90 95 100 98 100 98 98 92 82 67 66 59 64 65 67 100 99 82 59 54 72 66 74 100 99 100
88 88 97 97 97 98 97 98 98 98 98 98 97 95 97 93 92 89 77 74 85 84 97 92 88 91 90 82 80 68 64 58 60 58 62 75 87 100 98 90 85 98 87 100 100 100 99
97 96 96 98 97 98 98 97 98 97 97 96 94 95 90 88 78 74 80 69 75 76 73 76 70 71 72 71 70 78 67 61 63 60 68 92 82 86 94 97 96 95 94 99 100 100 87
98 99 98 97 97 98 97 97 97 97 97 90 78 73 73 76 80 75 78 76 74 70 64 57 53 58 65 66 68 80 85 84 80 79 79 82 94 100 93 99 98 86 86 83 92 96 100
96 97 97 97 97 98 98 98 98 97 98 100 94 94 83 80 83 78 69 59 53 50 51 45 59 64 73 90 95 82 99 86 99 88 100 100 96 100 93 82 100 100 59 71 87 100 100
94 94 94 95 95 98 99 96 100 100 99 97 92 86 75 67 58 52 49 49 48 52 46 52 58 68 82 91 95 99 95 77 80 98 100 98 93 85 89 100 100 96 54 100 88 96 100
97 100 100 100 100 100 100 98 93 92 78 66 61 54 48 44 40 38 35 31 34 34 35 33 43 50 66 79 94 99 98 72 100 100 100 99 93 100 85 99 92 61 78 81 100 76 80
100 100 100 100 100 96 90 82 72 64 54 42 38 36 31 28 26 23 24 23 23 27 31 37 42 69 71 69 78 98 100 80 68 100 97 73 78 83 85 79 78 71 97 100 93 53 80
100 97 97 92 84 73 64 51 49 38 27 23 18 14 14 15 16 26 27 28 26 37 52 79 100 100 90 100 100 100 100 81 75 73 65 99 100 95 99 96 76 78 99 96 73 40 58
87 79 64 55 46 41 36 29 26 23 20 18 14 15 16 15 13 20 20 21 34 62 80 79 68 99 100 91 80 97 89 100 88 92 98 95 87 99 100 97 70 80 91 78 69 70 80
67 54 44 35 28 23 20 20 30 50 52 38 31 33 28 25 24 31 27 26 36 42 53 71 100 96 96 100 100 100 99 88 75 80 64 70 89 93 100 100 100 100 96 92 89 100 100
27 23 17 12 11 11 16 26 41 74 73 52 56 53 40 33 34 34 38 57 58 48 49 94 90 99 82 100 100 98 82 60 86 60 74 64 99 100 99 87 98 100 99 67 43 39 39

GFSGBSN_500_rhum_186.txt.gz
RH
41 41 59 39 28 28 28 29 34 45 65 39 52 59 52 46 41 41 38 30 24 22 20 19 20 22 24 20 22 23 24 19 16 20 15 14 14 14 15 19 25 19 19 19 19 23 42
51 64 57 30 28 29 28 31 34 49 71 44 60 62 57 49 43 45 48 40 32 28 26 24 24 20 17 19 18 19 23 25 22 21 22 17 16 14 13 16 13 17 23 22 28 32 23
45 60 57 30 29 29 28 30 30 52 72 51 67 67 57 52 48 48 53 51 46 43 34 30 28 28 28 20 14 16 18 22 23 21 21 20 19 18 16 15 14 15 13 22 34 24 16
55 32 37 30 32 37 32 31 32 53 70 57 81 71 59 53 49 49 50 48 45 45 47 41 34 31 32 31 34 29 25 24 24 22 23 22 22 22 18 17 17 19 16 13 20 26 28
54 72 36 34 40 35 37 60 71 79 82 67 86 81 69 60 57 50 52 53 50 52 53 48 42 41 38 35 37 42 37 32 30 29 28 28 24 23 26 22 18 22 18 19 18 34 34
72 72 52 36 40 77 73 86 89 88 60 79 85 84 79 66 61 56 58 60 55 45 46 47 46 45 53 46 42 42 43 40 33 27 27 27 24 25 28 27 22 24 26 25 24 31 43
69 83 91 62 73 82 88 91 92 61 64 81 88 81 77 70 66 56 60 62 65 57 57 56 46 38 59 52 46 45 41 38 34 30 28 26 27 30 30 31 31 30 32 30 32 32 27
80 78 92 88 86 96 96 94 93 67 76 86 84 81 82 85 82 65 68 54 50 52 42 68 53 46 50 49 51 46 42 38 33 32 32 31 36 36 34 34 31 31 32 34 30 26 24
97 97 96 96 95 92 82 91 73 73 84 86 87 86 84 91 83 79 77 65 62 60 47 53 65 61 58 55 53 51 47 39 35 39 36 34 36 35 34 32 32 30 30 30 29 26 23
98 97 91 86 90 88 82 88 79 78 81 81 86 90 88 98 94 90 87 78 72 70 56 55 60 64 64 64 62 54 45 42 38 38 38 38 36 35 25 22 44 33 40 37 32 32 28
88 88 80 86 86 78 76 75 78 81 90 88 85 86 83 87 91 84 87 81 82 86 69 70 60 63 62 67 60 55 58 55 53 47 36 30 24 24 21 23 41 25 51 57 51 45 45
85 85 86 88 81 84 82 87 81 87 89 94 95 92 84 83 95 95 90 94 94 95 82 88 71 65 66 61 64 68 65 52 45 43 42 35 29 24 23 20 40 42 35 40 50 50 44
90 93 97 96 91 93 95 91 89 92 93 93 93 98 95 92 90 92 94 95 99 86 100 90 86 75 69 69 66 57 42 36 39 44 43 35 26 24 30 23 33 33 44 39 36 31 32
99 98 92 96 95 97 88 91 92 95 94 100 96 99 97 96 95 96 96 97 92 91 97 93 91 92 83 80 63 54 48 44 66 99 95 51 25 27 40 36 29 31 57 67 77 54 42
82 92 93 95 96 99 94 92 87 93 97 98 96 94 99 87 95 94 100 90 94 100 95 97 98 96 98 100 85 70 59 47 55 82 100 100 72 38 52 55 67 51 52 66 83 92 100
98 99 94 74 84 96 97 97 99 97 93 87 91 93 100 94 96 96 96 93 100 99 96 97 94 89 87 94 99 100 73 53 63 82 97 100 99 53 41 45 42 64 51 50 66 99 100
97 87 82 97 93 86 89 99 94 90 88 88 91 97 93 99 98 98 94 96 98 100 96 97 96 94 91 82 75 74 58 56 70 71 88 100 100 82 65 44 54 58 66 72 92 88 100
84 79 99 94 97 97 97 96 95 86 83 90 92 95 98 96 98 97 97 99 97 98 99 99 93 92 86 85 73 64 57 57 56 60 56 55 100 94 77 63 73 99 82 80 95 99 100
68 68 74 97 95 96 96 94 95 96 95 89 92 96 100 96 94 97 96 92 94 99 100 96 97 97 88 72 79 60 55 50 56 51 53 61 70 94 79 70 74 93 93 100 100 100 94
85 93 98 98 92 90 95 96 98 98 100 96 99 98 98 98 98 98 98 94 88 89 84 83 80 77 74 68 69 61 51 49 51 56 65 86 85 92 90 89 76 72 62 66 100 100 100
97 97 97 98 97 89 93 95 97 97 98 100 96 98 96 95 94 87 86 78 81 81 75 72 66 65 60 57 55 59 62 53 48 55 66 76 85 88 85 92 89 88 94 90 100 100 100
97 97 95 97 97 98 100 98 97 98 97 99 100 96 90 86 85 87 84 78 74 70 65 61 59 57 53 56 64 60 64 67 55 52 66 76 85 78 91 97 100 100 82 56 77 100 100
97 99 98 99 99 98 98 98 98 98 96 90 91 83 82 74 83 82 72 64 58 52 48 46 42 37 34 34 36 37 43 48 90 100 95 67 53 92 100 100 100 80 72 100 95 77 99
100 99 99 100 98 97 97 98 98 96 100 99 98 89 87 80 65 51 47 44 39 33 29 24 20 19 19 21 28 47 69 83 96 100 100 76 66 100 100 99 71 29 52 97 94 94 100
99 99 98 99 99 99 99 100 100 100 100 96 90 68 57 56 43 38 37 28 21 20 16 12 12 27 38 32 67 89 92 97 93 79 74 83 90 100 94 48 36 33 67 84 70 68 87
99 97 98 99 99 95 95 93 92 84 71 59 50 49 51 61 44 28 23 20 16 13 13 14 22 48 74 79 85 88 80 70 62 99 100 100 100 96 78 65 55 66 70 96 82 72 90
97 99 96 96 89 84 77 71 61 54 49 38 27 26 21 24 31 28 24 22 27 28 25 21 19 61 100 81 89 96 96 100 84 98 93 96 99 100 100 100 72 97 100 99 86 91 80
91 87 82 77 71 61 48 39 31 21 16 17 30 42 53 58 43 49 43 44 47 43 37 28 24 40 99 100 92 100 98 99 85 78 46 66 100 100 92 93 99 95 100 99 100 97 98
67 60 54 49 42 32 22 16 12 13 16 21 52 64 71 66 40 48 68 61 60 53 46 47 50 46 89 100 100 100 98 84 51 55 63 70 100 65 86 98 87 100 100 99 100 68 29

GFSGBSN_500_rhum_189.txt.gz
RH
20 20 21 20 45 53 60 41 32 30 28 30 35 46 56 64 62 52 47 42 36 32 31 30 26 25 26 26 30 24 18 13 17 18 16 16 17 16 15 16 17 14 13 14 16 24 36
26 23 21 35 47 56 57 52 32 31 34 35 32 40 68 68 65 56 52 48 42 38 33 30 30 28 26 24 28 26 24 18 15 16 14 15 15 16 16 17 16 16 15 18 22 26 19
33 19 28 38 44 52 65 70 43 34 44 45 49 54 77 72 70 63 58 52 46 43 45 43 43 43 36 28 25 26 29 27 21 20 18 17 18 18 18 20 21 19 17 18 27 19 21
27 23 31 38 43 50 48 37 41 39 48 44 61 84 82 72 76 65 62 56 48 43 44 42 41 45 48 42 39 35 31 31 32 32 30 27 28 27 24 24 24 22 20 17 20 23 24
31 32 38 49 58 58 70 64 44 40 39 58 86 85 70 69 74 70 68 62 54 47 45 46 48 46 45 41 36 36 41 43 40 37 38 37 33 29 29 28 24 26 23 22 22 29 28
39 38 41 47 57 59 66 68 64 70 69 83 88 92 62 74 72 69 66 62 57 54 54 50 47 43 48 44 34 40 40 45 46 42 39 36 34 31 30 29 26 26 27 27 26 35 34
44 44 49 54 54 57 59 69 81 85 73 94 94 84 68 80 70 68 63 56 54 49 58 54 54 45 56 50 43 45 42 41 44 45 42 40 35 31 30 29 31 32 32 28 30 31 27
50 76 95 97 90 83 84 86 94 95 92 86 84 71 73 83 74 63 67 59 59 53 43 78 70 53 52 56 58 52 48 45 46 46 46 40 36 34 33 33 31 30 29 27 25 27 30
87 88 95 94 97 96 98 98 93 86 84 85 79 73 87 96 85 76 77 64 67 62 50 40 63 59 56 58 60 59 58 56 51 50 44 38 37 36 35 34 32 32 30 24 24 25 27
88 92 99 97 96 97 94 91 91 78 87 95 76 82 90 91 80 83 85 81 77 68 53 47 48 57 63 70 70 79 75 67 56 50 43 42 44 41 38 32 32 19 29 24 20 21 19
92 98 95 98 99 96 89 89 83 82 88 91 86 90 86 90 82 78 72 69 70 70 59 68 64 63 67 70 83 86 80 65 55 54 56 52 40 40 32 32 34 21 33 36 32 28 27
81 94 93 89 90 93 95 97 96 94 100 95 90 90 84 83 78 71 73 66 71 77 63 78 72 74 74 85 94 89 74 72 68 60 52 42 45 44 38 36 46 46 36 37 40 36 35
82 78 81 89 93 95 96 100 96 96 97 94 94 90 85 83 75 74 77 71 83 70 88 74 76 80 80 88 91 95 81 80 82 77 62 55 44 47 50 43 44 46 54 52 50 46 47
73 71 80 76 80 86 97 91 91 87 86 93 99 100 92 89 78 79 78 79 77 81 89 85 94 96 91 96 89 100 88 72 73 90 73 57 36 51 50 52 45 44 70 88 98 74 57
78 76 76 63 65 70 70 73 72 72 73 80 79 85 90 85 92 92 88 76 89 86 85 90 100 96 98 94 91 90 87 86 90 91 100 97 51 53 64 56 64 53 48 67 100 95 100
96 88 84 72 62 84 73 84 72 56 78 83 86 76 80 77 95 91 79 74 88 86 94 98 98 98 96 99 99 91 81 89 93 89 94 100 90 46 39 44 46 66 76 66 78 100 99
92 87 98 97 90 85 97 86 80 79 90 98 93 95 82 94 93 86 74 81 93 93 99 96 96 97 97 96 99 98 87 87 98 96 100 99 100 68 54 39 46 54 70 87 100 100 100
86 95 96 100 93 97 99 88 82 72 79 94 96 97 92 92 100 94 90 100 100 97 97 99 99 98 97 97 87 88 79 78 73 71 68 72 100 100 75 53 54 66 67 85 100 100 98
97 85 87 88 86 80 80 82 78 82 88 94 94 91 97 94 97 97 96 98 98 99 99 97 97 96 93 87 82 68 59 56 58 59 65 64 61 86 81 62 62 72 74 94 99 100 99
97 97 98 95 97 96 95 97 98 85 98 98 94 95 100 99 97 98 98 98 98 99 99 99 95 90 88 86 82 66 62 53 52 57 64 73 65 67 72 78 79 79 73 68 86 100 100
97 97 97 91 80 92 99 99 95 98 93 83 89 95 98 99 99 99 99 99 100 99 97 96 97 97 87 72 67 63 58 52 45 47 51 53 54 60 66 66 72 73 88 66 95 100 100
97 98 96 85 91 93 94 96 98 94 92 91 95 100 96 96 98 100 98 98 97 97 95 85 78 67 57 54 49 50 39 34 29 25 25 27 35 52 73 63 72 64 51 74 100 94 100
96 97 98 98 97 97 99 97 90 94 94 100 100 99 99 99 100 98 100 96 96 96 78 67 60 61 56 39 27 22 19 17 17 16 15 29 76 98 100 87 85 78 96 100 95 89 100
100 99 99 98 95 97 98 100 100 100 99 100 100 100 100 98 100 100 96 88 81 66 66 58 45 30 20 16 13 11 10 13 14 15 36 71 96 83 79 92 81 93 95 96 72 57 91
98 97 98 99 97 97 98 100 100 100 100 95 99 98 96 98 81 62 57 48 41 32 25 21 18 14 12 11 12 12 11 23 23 28 47 77 82 96 100 78 78 80 75 91 81 43 89
97 97 100 98 96 100 100 100 100 100 96 90 89 96 99 100 90 81 62 29 26 24 23 20 18 19 23 24 20 22 26 37 66 72 85 100 100 100 100 100 92 82 98 100 100 84 100
97 97 98 98 96 93 91 97 94 88 79 71 76 88 50 32 24 23 26 29 34 30 34 38 39 44 40 28 25 59 72 100 99 99 100 100 100 100 99 100 93 100 100 100 100 100 91
97 97 96 93 89 85 80 72 62 55 43 42 41 21 15 14 19 24 37 47 50 48 53 56 52 46 40 33 37 92 80 96 98 86 63 59 75 91 84 92 90 100 97 100 98 100 94
83 79 77 72 64 45 35 27 21 16 14 11 12 14 17 23 27 35 43 65 49 68 72 58 50 47 48 63 70 82 73 58 100 99 100 67 75 66 81 80 100 100 100 96 100 100 100

GFSGBSN_500_rhum_192.txt.gz
RH
23 23 21 23 38 26 27 32 47 51 44 49 59 34 39 41 58 66 72 68 49 45 43 38 34 32 33 30 30 29 28 24 22 22 21 18 15 13 12 13 13 12 13 13 14 15 16
19 20 22 46 43 38 31 30 37 50 50 48 57 44 37 41 54 78 72 72 58 50 47 43 40 42 41 38 38 34 32 29 22 19 20 18 16 15 15 15 14 14 15 16 18 19 15
23 19 29 40 45 46 25 39 41 44 47 53 41 41 45 49 73 83 70 70 59 55 50 47 44 39 41 37 40 40 36 33 29 24 20 28 30 29 26 20 20 22 21 20 23 23 20
36 30 34 41 50 40 25 37 47 49 55 61 62 56 53 65 90 88 71 72 67 54 53 48 44 38 39 35 43 43 40 35 30 26 27 26 25 26 29 31 32 30 27 25 28 28 26
72 42 39 43 54 53 32 44 52 54 57 65 59 72 75 85 88 74 64 68 66 63 55 52 47 44 47 41 40 37 34 34 29 26 26 30 34 35 36 35 33 32 29 27 25 34 31
94 60 47 52 79 44 39 41 42 48 50 58 64 71 82 86 86 74 62 67 69 64 60 54 52 46 50 42 42 41 42 42 40 38 35 31 30 32 42 41 35 36 33 30 29 38 33
86 76 56 56 76 43 40 49 91 93 81 81 89 95 97 88 84 70 62 65 64 58 61 57 55 45 48 49 54 64 56 53 55 51 47 40 37 42 42 42 41 37 32 29 35 35 27
98 85 61 69 71 46 51 67 88 96 100 93 96 100 94 91 80 71 64 60 59 48 45 68 68 63 60 61 59 56 53 51 58 60 55 52 47 50 44 44 40 37 33 31 28 32 29
97 100 91 81 72 74 78 83 88 92 92 91 96 100 98 88 78 74 70 66 62 51 40 48 52 50 52 54 54 53 56 60 65 70 69 60 60 54 48 43 38 36 36 35 30 28 27
93 96 96 90 82 79 82 91 90 92 94 92 87 100 98 94 77 75 76 75 69 59 47 45 45 48 51 51 55 68 76 74 76 81 71 60 63 54 49 47 48 43 49 46 40 34 23
94 87 83 79 77 86 88 89 91 96 96 88 89 95 97 99 88 86 81 76 69 67 52 50 48 51 54 58 63 64 73 84 90 87 78 66 61 56 60 67 70 46 50 46 43 42 42
89 75 73 76 78 84 87 86 85 88 93 91 92 92 93 91 87 93 84 70 68 63 46 60 59 61 60 61 67 68 77 79 95 96 96 78 64 66 68 67 70 52 48 54 51 52 54
86 74 74 81 74 69 81 83 85 87 92 89 86 86 86 83 80 83 78 77 75 60 71 65 69 67 66 63 72 80 86 91 100 97 93 94 85 84 84 71 66 70 72 78 77 68 56
83 72 65 77 75 82 83 86 89 89 85 86 84 77 75 78 72 74 64 58 57 54 67 71 77 72 67 66 69 82 96 100 99 97 96 96 69 89 86 78 71 68 85 94 99 81 74
88 76 55 75 81 78 76 77 78 76 72 79 75 73 69 70 74 89 69 61 72 87 70 85 88 76 76 78 88 94 100 100 99 99 99 91 58 69 75 71 80 74 74 97 100 100 100
83 68 71 75 78 81 84 79 78 71 72 96 99 90 72 66 74 79 70 65 81 85 87 98 94 92 83 85 95 94 96 98 96 94 99 98 88 64 69 66 69 83 79 70 87 100 100
85 86 75 87 74 68 76 92 95 96 95 94 99 93 77 73 82 83 83 92 97 99 97 100 96 93 91 97 98 100 98 100 97 95 98 100 97 51 55 52 56 56 75 90 100 100 100
89 90 96 78 84 94 74 74 94 96 97 100 95 95 86 92 93 88 86 98 97 92 90 92 98 99 100 100 94 97 98 99 99 98 97 100 99 91 61 54 53 54 53 74 86 90 99
92 94 91 92 98 96 99 94 92 96 95 100 97 100 92 92 94 99 100 92 86 92 93 97 96 96 97 99 99 96 98 100 98 96 96 91 86 76 62 50 48 51 48 61 73 75 79
89 84 95 96 98 97 97 97 97 96 95 87 90 93 99 100 99 100 98 96 97 98 96 98 100 100 98 98 99 95 96 89 77 74 70 69 66 65 64 58 44 30 34 37 50 73 62
89 92 92 96 97 96 97 97 93 94 93 81 89 99 100 96 96 98 97 96 99 98 99 100 99 100 99 96 96 92 76 69 69 68 60 54 46 38 31 28 31 41 37 26 35 32 74
97 98 98 98 97 97 97 94 97 96 99 100 100 99 99 98 100 100 99 100 99 100 100 100 100 96 93 88 83 68 61 57 48 40 29 18 15 14 13 11 14 26 23 24 84 68 100
99 96 96 94 96 95 96 88 86 92 93 90 97 95 96 96 100 99 100 99 97 99 98 99 97 92 97 93 88 73 49 37 20 12 8 7 7 8 8 15 51 41 79 65 86 100 100
97 96 96 91 93 94 95 97 97 94 96 99 97 97 99 98 100 100 98 100 96 98 97 100 100 96 77 61 42 22 14 12 10 11 12 10 11 30 15 54 48 72 64 96 99 87 89
96 100 96 100 94 84 85 84 84 83 91 99 100 100 100 99 100 98 95 94 92 93 95 86 54 34 24 17 14 13 14 17 16 14 20 50 78 79 67 81 68 100 100 86 81 97 100
97 97 96 93 86 76 77 84 96 100 99 99 98 98 95 92 79 69 63 63 71 58 33 26 21 18 15 18 30 31 35 31 34 28 100 94 90 100 100 90 85 100 100 73 98 76 68
100 87 78 71 70 66 68 80 90 95 97 94 89 76 64 57 52 42 32 30 26 21 19 21 22 32 40 45 51 54 53 41 31 41 78 96 100 93 67 89 99 99 100 100 100 100 100
90 94 85 83 81 79 74 73 78 78 71 58 49 44 38 29 22 17 17 20 24 27 28 31 32 48 61 65 65 67 57 37 32 66 92 81 89 83 61 80 99 100 100 100 90 100 95
78 76 79 80 68 59 59 58 49 38 30 24 20 16 14 14 16 20 25 33 32 32 29 36 72 81 76 73 70 62 48 36 53 71 100 100 89 59 56 97 100 100 100 100 100 100 100

GFSGBSN_500_rhum_198.txt.gz
RH
26 27 29 27 24 22 26 32 30 22 22 35 43 54 31 30 35 39 50 61 58 67 75 60 56 56 47 43 37 33 30 32 30 28 28 26 25 24 23 20 18 15 14 14 14 16 15
23 34 39 30 19 21 31 31 22 27 30 41 47 50 60 26 27 32 52 54 59 71 71 60 54 54 53 47 47 43 39 37 40 39 42 40 38 38 36 32 28 24 25 21 19 21 22
33 30 40 23 24 30 31 32 26 36 43 46 50 52 62 38 29 30 42 53 60 66 60 55 49 50 54 52 48 47 44 43 41 36 36 39 37 36 34 29 26 25 20 19 18 21 21
42 45 40 45 47 32 45 44 54 54 55 51 57 58 54 43 34 39 65 66 65 56 55 50 50 50 53 55 51 50 44 42 41 39 39 37 35 35 34 29 29 29 27 26 31 27 26
39 46 60 50 54 58 72 77 84 85 83 83 80 61 59 48 41 57 70 72 57 52 52 51 51 51 49 56 52 46 46 49 48 46 44 40 36 38 38 42 40 38 37 36 37 41 40
50 55 81 76 87 83 74 72 70 72 75 73 80 66 66 52 53 67 65 61 52 45 57 51 49 50 51 54 58 53 51 51 51 50 48 47 44 43 46 51 43 44 37 40 43 48 45
76 70 85 91 94 81 76 76 79 76 72 77 79 74 67 58 69 69 58 56 44 51 65 46 45 51 54 55 56 53 52 45 46 50 50 42 45 44 49 46 45 43 46 52 56 58 53
81 79 94 84 88 87 90 90 92 88 80 86 85 72 68 71 69 69 61 50 44 35 50 47 55 60 65 64 63 61 60 57 55 54 51 50 46 51 49 52 48 56 58 60 61 67 59
89 92 88 83 85 88 91 95 100 95 84 90 92 81 74 67 69 64 58 50 43 40 40 56 52 51 57 57 59 58 58 57 56 51 44 40 44 43 44 46 51 56 71 82 77 74 68
79 86 85 80 84 81 94 93 100 98 93 82 77 75 70 62 67 73 59 54 48 39 36 43 50 55 50 45 45 50 49 48 47 44 40 37 39 46 52 55 63 64 83 87 88 90 75
84 79 82 78 86 92 96 94 97 100 89 77 73 69 67 68 68 70 62 56 58 57 36 43 52 52 53 51 44 34 32 26 35 39 41 48 44 50 63 79 98 89 97 94 100 97 79
88 94 91 88 95 95 90 97 96 98 87 71 67 71 65 67 68 69 67 61 58 56 34 40 44 46 50 46 46 40 34 26 27 21 39 40 45 53 67 84 98 100 97 100 100 100 80
92 93 90 91 96 91 97 95 90 98 92 82 65 80 66 63 66 76 75 74 53 41 47 43 54 57 49 53 44 45 49 36 31 25 35 49 58 63 50 80 98 96 98 96 95 100 84
90 99 95 98 96 99 91 85 92 99 96 89 63 77 79 68 73 87 86 76 62 46 58 60 63 61 61 58 54 50 50 49 36 47 45 48 64 62 56 81 100 93 99 100 97 98 97
97 95 96 94 97 95 78 94 96 95 95 89 76 75 82 82 85 85 85 68 61 64 62 68 69 61 63 62 58 53 46 48 53 52 73 67 67 66 66 87 99 100 96 99 98 93 94
96 96 90 98 93 90 94 96 98 98 98 95 84 85 82 89 85 82 82 66 64 72 79 79 77 73 69 64 59 54 48 53 64 69 80 84 81 73 80 92 99 94 100 99 100 100 96
96 93 86 96 94 91 85 96 95 96 99 98 97 97 65 89 92 94 81 87 97 100 100 98 95 94 87 67 60 72 74 81 79 80 85 87 79 70 69 86 95 100 100 100 100 100 100
98 98 92 92 92 88 88 95 97 98 98 97 97 97 93 76 93 82 93 100 98 95 96 96 98 94 80 67 66 86 97 96 87 88 91 89 89 73 71 91 96 100 100 100 100 95 93
92 96 97 96 95 93 94 95 93 95 88 95 97 97 94 97 97 98 96 98 98 95 92 95 97 94 94 82 87 90 96 95 90 94 94 90 89 75 52 98 80 76 83 88 85 52 46
69 92 95 97 96 95 92 93 94 98 96 98 92 98 97 97 97 97 97 96 96 96 96 96 96 95 96 96 98 99 96 91 89 89 92 87 86 92 88 73 85 67 68 53 28 18 13
70 94 97 99 96 88 72 72 94 97 98 90 89 96 97 95 98 97 97 95 95 100 98 97 97 100 100 96 97 94 90 93 98 100 100 96 87 85 70 56 48 38 28 16 12 10 21
99 96 97 97 96 79 75 73 94 100 100 100 99 98 97 96 96 98 95 96 98 96 96 95 96 100 100 98 99 98 100 100 98 90 74 68 54 42 41 29 19 18 13 10 11 51 86
97 97 97 98 95 89 87 97 99 96 93 99 100 97 97 95 95 99 100 100 100 99 94 94 95 99 100 100 100 97 85 70 61 58 50 43 24 18 19 15 13 13 16 26 59 100 88
97 97 97 98 97 98 98 98 98 97 98 97 98 97 96 98 99 98 97 95 97 99 98 87 85 82 87 83 77 72 72 63 52 38 25 18 20 23 27 22 20 56 54 61 91 97 100
96 98 97 98 97 96 77 82 86 98 100 98 94 95 100 97 98 100 94 81 72 69 74 75 73 81 90 90 74 57 40 33 24 18 17 21 29 67 54 83 17 13 89 99 89 99 98
87 96 96 98 97 94 98 100 98 96 100 100 98 95 87 80 75 77 80 74 70 68 77 92 95 84 67 47 31 25 20 17 16 18 24 33 80 99 88 51 20 100 100 100 100 89 100
98 98 98 97 96 97 96 98 99 96 92 89 94 91 80 59 51 48 51 66 74 80 80 75 63 41 28 22 16 15 18 22 30 40 59 81 75 69 43 43 56 57 94 100 100 94 100
98 98 99 97 96 97 97 97 95 92 90 85 61 45 38 29 30 45 67 75 74 61 48 32 20 16 15 15 17 30 33 53 56 54 55 58 63 36 32 89 45 96 100 100 100 99 100
98 98 100 97 92 91 74 64 47 37 29 25 24 24 24 27 30 32 34 31 20 14 14 12 13 13 15 32 40 50 52 37 29 29 57 59 80 91 100 90 76 94 100 100 100 100 85

GFSGBSN_500_rhum_201.txt.gz
RH
19 21 21 24 25 28 34 39 30 20 29 31 36 31 32 36 44 55 55 31 29 36 51 52 52 53 55 51 46 41 37 32 28 26 27 27 26 25 23 24 24 24 23 24 23 21 20
22 23 25 24 22 30 38 34 27 31 32 37 44 39 45 50 51 61 57 38 35 44 59 54 51 52 50 49 50 46 45 41 36 36 37 36 32 30 29 27 25 25 30 28 26 22 21
24 26 28 36 42 42 38 40 45 47 46 55 74 67 69 61 58 62 58 41 40 58 58 58 60 48 44 48 47 50 49 46 43 41 38 38 35 34 37 35 34 38 33 29 31 38 29
28 30 27 32 35 37 41 52 52 54 69 69 71 70 71 63 58 65 58 48 48 59 54 62 58 49 42 45 44 48 52 50 48 45 42 41 42 42 42 37 36 34 30 28 38 34 29
24 26 30 38 42 42 46 62 69 73 73 69 67 65 59 57 53 61 57 50 53 58 60 61 49 50 39 44 43 50 53 50 49 50 49 45 41 41 43 42 40 39 32 35 35 41 39
22 49 60 66 57 67 62 60 84 78 70 70 68 64 58 56 55 59 58 50 56 58 60 53 48 50 40 44 49 54 56 54 52 52 54 52 46 44 48 51 40 44 41 43 44 46 34
57 56 57 63 60 79 76 80 82 77 73 74 68 70 63 63 61 59 58 55 46 53 54 45 43 42 39 47 56 57 56 53 52 54 54 51 52 56 55 50 45 40 37 36 38 41 39
75 70 66 94 77 78 90 89 88 78 76 79 72 77 69 74 69 61 57 51 47 46 51 59 52 48 52 54 56 56 57 56 54 56 56 56 51 54 49 44 39 35 39 34 30 34 32
73 76 84 86 82 83 90 88 81 87 80 75 73 81 74 69 70 65 58 52 50 50 47 39 42 45 48 47 50 52 57 57 55 54 52 49 42 36 31 34 35 36 29 27 28 28 26
95 92 96 89 82 88 84 82 88 85 91 85 73 75 81 66 63 58 54 52 54 53 40 35 37 39 42 48 48 45 49 45 41 37 35 30 28 25 23 19 24 22 44 41 36 48 28
96 90 94 83 82 77 74 84 90 80 88 86 87 86 81 67 55 52 51 57 58 51 47 34 35 42 44 43 40 29 36 34 33 32 26 28 29 25 22 34 33 33 56 48 67 67 60
96 89 93 80 82 83 87 88 92 85 88 87 86 93 93 79 65 56 54 59 58 50 50 46 49 48 45 38 42 40 44 39 39 42 44 36 39 37 36 31 42 45 55 64 59 84 77
98 97 91 91 85 79 85 91 96 96 95 97 94 82 91 93 74 60 57 57 52 47 47 43 40 47 47 43 43 49 52 51 49 44 52 39 44 45 27 35 51 50 65 76 76 85 96
96 95 96 96 95 93 95 90 97 94 95 92 86 85 85 91 82 68 58 60 50 40 47 55 49 53 44 43 48 55 56 54 39 41 42 40 42 39 38 45 70 77 85 95 100 85 89
96 96 95 95 99 93 94 93 95 97 91 83 92 91 91 100 90 85 75 53 52 54 56 61 68 62 69 56 56 64 65 63 68 67 68 57 52 45 49 57 72 85 93 100 100 89 88
98 96 94 93 85 92 88 94 96 97 87 97 95 86 81 96 99 93 87 62 59 76 88 76 88 90 77 75 62 69 78 62 65 64 59 52 46 61 80 67 84 89 97 100 100 98 95
97 97 98 95 97 93 84 89 90 99 93 94 97 91 90 99 98 96 84 87 84 87 100 99 98 99 84 92 98 100 90 73 72 76 73 62 58 74 80 83 83 93 91 86 90 96 100
95 92 93 95 97 92 91 94 90 96 97 97 97 97 91 97 96 95 94 98 96 95 97 98 97 97 97 95 96 96 95 86 78 71 86 86 94 78 77 90 86 89 91 92 96 100 92
91 89 96 95 90 96 97 99 95 94 96 98 94 95 73 85 86 84 85 88 100 100 98 96 97 97 98 96 98 95 90 89 91 95 93 93 91 80 68 91 75 74 77 84 100 100 78
98 92 86 94 96 96 97 90 96 96 97 94 97 94 85 84 95 99 90 87 94 97 95 97 96 97 98 98 99 100 98 90 87 93 91 91 89 84 71 76 100 100 100 88 61 54 34
96 97 88 96 98 97 91 65 67 88 95 98 96 91 76 90 98 97 99 95 97 93 92 96 94 97 97 99 99 100 100 97 89 87 85 88 84 96 87 83 70 57 54 49 35 25 16
97 94 95 88 74 56 59 63 73 98 96 93 97 93 87 97 97 98 96 97 99 97 99 95 97 97 98 100 100 95 92 94 95 100 98 100 92 80 60 60 50 44 39 22 19 21 33
96 85 77 69 54 51 61 70 90 98 97 94 96 95 98 96 97 100 99 98 96 97 97 100 100 98 99 99 100 94 95 99 100 100 100 91 79 66 61 43 27 29 30 67 50 77 100
88 81 76 72 72 83 92 96 96 97 98 98 97 98 97 97 98 97 98 99 100 98 100 100 100 98 90 100 99 100 100 100 95 94 79 57 34 23 21 17 20 51 100 98 94 82 100
91 89 77 76 70 67 94 99 95 95 97 97 97 97 99 96 96 89 94 100 100 98 99 97 99 100 100 100 100 100 100 85 68 59 39 23 19 20 31 46 96 100 100 97 98 81 90
94 83 81 79 89 75 94 94 94 92 89 91 95 96 99 100 95 98 100 98 100 100 96 88 71 82 90 94 100 86 69 48 28 22 20 26 40 56 100 100 100 100 100 88 100 93 100
82 91 90 94 95 96 96 93 96 87 89 93 92 93 98 100 100 100 98 96 88 84 84 81 82 94 87 74 56 36 21 18 19 27 66 100 100 100 100 100 95 94 97 84 99 100 100
62 98 98 95 96 95 89 85 84 91 95 96 98 98 97 93 78 61 56 51 50 70 86 74 75 53 35 22 16 15 24 24 90 88 98 100 100 100 100 100 61 100 96 93 100 100 100
98 96 92 90 83 82 83 91 98 98 93 87 83 64 50 38 29 23 29 38 47 57 43 31 16 12 11 12 20 34 50 96 52 44 75 100 100 100 97 99 100 100 97 100 100 96 90

GFSGBSN_500_rhum_204.txt.gz
RH
22 23 32 20 20 18 21 22 25 27 30 36 41 47 48 56 67 66 66 61 56 59 39 42 52 53 50 46 36 44 40 42 36 33 43 31 22 20 21 23 27 25 24 25 26 26 29
21 20 19 19 19 21 24 27 30 39 40 41 47 48 57 61 59 61 66 65 60 58 45 43 51 54 48 42 38 39 40 43 42 43 37 33 30 29 29 31 28 31 32 33 29 31 32
25 21 19 18 22 24 29 40 35 34 41 45 51 58 55 57 54 52 54 55 53 54 48 47 51 51 48 45 34 37 41 44 46 46 45 40 38 38 37 34 34 35 39 36 32 36 32
22 22 23 25 24 26 31 34 31 41 45 46 62 56 54 55 52 44 49 54 50 51 47 51 46 47 44 42 36 40 41 42 46 50 48 44 43 44 44 44 43 42 41 35 38 40 41
26 26 26 25 25 28 30 36 37 49 59 60 68 55 58 54 47 41 47 56 52 49 47 53 43 45 39 38 36 36 40 40 50 48 47 47 44 41 42 43 42 42 39 40 38 51 56
37 27 26 25 26 25 38 34 51 49 58 68 71 62 54 53 48 43 51 57 60 51 48 47 46 38 38 37 34 39 40 43 47 49 48 47 43 40 43 44 41 44 43 42 36 36 34
45 37 33 40 46 39 38 40 57 52 63 81 73 63 56 56 54 46 51 59 58 51 44 47 44 37 34 34 33 36 38 42 47 51 49 48 44 47 50 50 51 49 43 36 32 27 18
36 48 51 50 51 60 60 55 73 78 70 78 71 61 58 66 60 52 49 51 50 49 45 63 50 44 36 38 39 36 43 44 46 48 48 43 46 48 47 44 40 33 24 17 16 18 21
42 53 50 61 59 56 48 58 74 79 76 77 71 61 63 73 62 57 56 53 48 47 43 45 49 43 36 39 40 36 44 50 46 48 44 37 35 36 30 27 27 26 23 21 18 17 16
47 47 57 57 54 54 59 79 92 92 83 73 73 65 67 74 65 67 64 57 45 40 40 42 41 43 36 39 42 42 44 41 40 37 37 31 36 35 34 36 36 29 30 21 20 23 17
51 56 69 66 58 82 86 92 95 86 72 72 76 68 74 75 77 75 74 70 57 41 42 46 45 41 39 37 40 29 38 41 46 41 40 38 33 29 27 32 26 24 31 28 30 33 28
90 78 90 91 84 93 99 92 90 82 76 79 78 78 87 86 84 82 68 70 65 55 52 47 58 50 52 48 41 41 41 45 43 40 46 49 55 51 46 41 37 41 51 46 39 56 41
91 96 95 99 85 94 98 98 98 88 78 76 79 85 87 77 78 73 65 61 63 54 73 56 46 55 55 54 48 43 40 49 57 50 49 57 65 67 63 64 65 60 53 45 37 45 66
97 96 95 93 84 84 93 93 95 97 87 82 83 91 83 84 83 79 70 72 57 57 72 80 57 52 51 59 57 56 51 53 58 46 58 64 66 69 61 58 62 68 68 76 72 43 59
96 94 95 91 94 84 95 97 94 90 83 87 93 82 80 83 91 84 78 65 62 74 78 80 84 74 76 79 63 70 59 55 52 61 73 71 72 72 73 61 62 76 69 86 97 78 92
96 97 94 89 92 96 94 95 98 98 91 95 91 88 90 94 96 96 82 69 75 98 98 96 87 80 69 84 82 82 64 54 66 77 86 83 71 68 78 62 72 84 100 98 95 99 98
96 94 95 97 89 98 94 92 96 96 97 98 97 93 79 97 100 96 84 91 93 99 96 100 97 94 86 86 92 100 82 70 70 84 93 80 64 62 69 81 85 96 80 92 95 88 100
100 96 100 93 99 98 91 98 96 96 97 98 96 95 78 93 98 95 86 79 93 91 94 99 96 92 100 100 96 96 97 96 87 84 84 72 77 65 65 95 98 99 95 99 100 100 100
98 100 92 94 96 97 94 98 97 96 97 98 94 97 91 98 93 96 95 98 84 90 96 96 97 95 94 100 100 96 94 84 94 98 86 81 86 80 70 90 88 87 86 86 91 98 72
96 96 95 96 97 86 97 96 96 95 98 98 96 94 89 93 93 94 96 91 78 71 89 97 97 98 99 97 98 95 96 96 94 99 98 95 89 93 84 88 100 100 100 100 100 96 94
97 96 97 97 96 97 98 97 93 97 97 97 92 74 81 71 66 93 94 96 87 79 98 98 95 97 99 96 98 97 97 98 94 94 97 97 91 95 85 89 94 94 91 95 88 70 40
98 97 97 96 97 93 94 97 96 97 97 96 68 64 60 61 82 99 95 92 95 100 98 96 97 97 97 96 99 99 99 98 96 97 95 95 88 96 74 95 95 86 90 88 43 36 43
97 98 97 97 97 100 97 96 92 89 84 66 61 71 97 96 97 97 95 97 98 96 96 97 97 97 96 98 96 98 98 100 100 99 100 100 100 100 85 94 88 71 50 43 49 74 100
97 97 97 96 98 97 96 94 80 67 59 72 66 80 84 87 92 97 96 97 97 96 97 97 98 98 94 98 99 98 96 99 99 100 100 100 100 95 74 56 48 44 37 67 100 99 100
97 98 95 97 95 95 95 95 91 80 74 71 73 77 95 92 96 95 94 97 97 99 100 98 98 94 100 97 94 92 95 100 100 100 100 99 77 48 43 49 62 46 78 96 100 94 77
95 96 96 99 97 91 89 87 81 82 74 68 81 81 90 98 84 80 90 98 100 99 100 98 98 100 100 98 98 100 100 100 98 77 53 46 50 67 68 79 98 72 100 100 86 57 41
99 96 90 90 97 98 95 89 90 85 86 90 94 95 86 80 81 90 94 100 100 100 99 95 86 99 100 100 100 99 86 56 36 27 58 92 100 100 100 100 93 100 100 88 79 65 54
98 92 93 97 97 91 81 64 70 85 93 89 88 89 88 88 100 96 98 96 91 81 71 64 50 71 75 69 53 33 18 17 22 43 92 100 100 100 100 100 99 100 96 84 64 100 98
96 100 88 71 41 53 77 73 61 74 82 56 75 97 99 100 96 78 43 34 35 45 53 37 51 45 34 17 10 11 24 94 100 100 100 98 100 100 100 84 100 100 89 84 76 100 100

GFSGBSN_500_rhum_207.txt.gz
RH
22 22 22 22 20 22 31 33 27 16 20 32 37 34 32 41 49 50 49 47 43 42 43 45 40 40 46 46 37 44 32 38 41 40 37 33 30 28 24 21 21 22 24 25 29 28 31
21 20 21 22 21 22 20 20 19 22 27 34 35 33 33 45 50 46 46 44 39 37 44 44 40 39 42 40 47 42 34 30 39 43 40 39 42 50 33 27 28 29 26 26 27 28 31
20 21 22 22 21 21 21 20 19 24 30 34 37 37 31 50 51 45 50 45 38 38 40 44 40 36 43 44 39 36 30 27 33 42 45 45 45 40 36 33 32 32 30 29 34 37 38
22 21 23 23 26 27 23 20 25 26 28 34 32 30 35 56 52 46 48 45 39 40 42 46 38 33 37 39 36 31 28 29 32 37 41 46 48 47 43 39 37 35 33 28 39 38 40
23 21 22 26 27 25 24 26 26 26 28 32 33 30 40 57 51 45 44 46 44 43 49 46 36 35 35 36 35 29 27 24 31 33 35 43 45 42 42 40 34 38 30 34 34 43 40
25 22 23 24 27 27 26 27 25 25 35 40 42 33 47 61 58 47 42 46 44 45 49 49 38 38 39 37 34 30 26 29 32 39 45 46 43 44 47 47 40 37 39 36 37 37 35
28 26 25 32 33 28 26 26 22 37 49 50 43 35 62 65 60 51 46 48 44 53 51 42 40 36 36 35 38 31 28 31 32 38 45 48 47 56 50 48 46 40 35 32 32 29 23
27 28 40 59 54 41 33 36 37 53 53 47 39 62 60 61 56 52 49 49 43 44 44 52 49 39 35 36 34 35 33 31 33 38 41 40 38 39 40 36 35 32 27 24 22 23 24
32 33 66 61 51 40 37 49 49 57 56 51 50 61 62 64 56 53 50 52 48 48 52 41 40 40 39 36 38 40 36 34 34 39 37 37 38 34 33 26 26 26 28 27 24 25 29
58 72 69 39 36 33 42 50 56 64 56 52 58 72 68 66 59 58 57 54 45 52 52 52 42 40 44 46 40 39 40 37 32 38 38 35 44 46 49 46 50 38 46 40 34 28 25
74 78 61 46 33 33 46 55 58 65 58 68 76 74 76 70 63 56 62 62 50 53 54 48 56 50 47 46 52 49 49 37 37 36 48 49 50 47 46 52 49 40 51 53 49 40 36
94 84 92 39 34 47 54 52 66 72 65 88 86 80 79 76 63 64 67 68 63 60 63 66 63 70 67 60 59 47 49 51 47 44 42 40 55 60 57 55 62 71 60 56 58 56 40
97 87 92 57 67 66 70 71 81 92 91 91 88 89 80 74 67 70 68 67 56 56 76 74 72 66 73 81 74 66 57 53 54 47 46 54 52 51 48 58 69 74 69 61 51 54 40
97 91 89 95 96 96 93 81 90 96 89 90 89 80 77 76 70 76 68 59 52 53 68 89 84 86 84 92 86 80 77 73 77 65 53 52 43 54 67 67 81 85 87 90 71 55 44
96 92 93 97 96 100 94 95 97 94 92 87 90 77 73 81 78 77 68 50 52 74 78 81 92 93 99 100 96 92 91 83 68 62 65 68 65 69 78 71 79 93 89 94 89 64 69
93 96 96 96 96 97 98 97 95 96 96 92 91 79 82 92 88 78 66 52 52 96 96 90 87 78 81 90 96 91 83 69 68 68 92 96 85 82 90 82 80 90 98 96 92 97 93
92 94 97 97 95 96 97 97 96 96 97 99 92 88 84 99 98 84 60 59 79 90 97 96 87 82 73 78 80 96 92 81 75 68 91 92 83 70 74 83 90 90 82 94 96 86 98
98 97 96 98 99 95 97 97 97 98 97 96 94 88 92 97 96 83 70 98 88 90 95 95 96 94 82 79 73 84 90 89 83 90 99 92 93 71 73 92 97 93 97 99 100 97 97
97 90 96 97 97 97 96 97 93 96 97 95 97 97 92 96 93 94 85 87 82 83 72 67 69 92 89 93 90 76 74 86 92 95 86 88 90 77 73 95 94 90 96 100 100 100 95
98 93 96 97 96 96 89 94 95 90 98 97 97 95 94 94 96 97 94 75 61 59 70 70 91 96 97 93 87 87 78 87 88 93 92 95 89 93 90 98 100 93 96 100 100 99 99
92 98 97 93 97 97 97 94 97 97 95 98 97 94 96 94 97 96 77 57 61 87 97 97 95 97 97 96 95 93 95 93 79 85 91 98 93 97 96 98 95 88 83 96 100 100 100
88 97 94 97 96 97 96 98 98 94 97 97 94 97 97 97 93 93 75 57 74 78 91 90 100 100 92 96 91 83 88 96 95 94 93 96 94 98 78 96 100 92 94 100 100 99 86
96 95 96 97 97 96 98 96 96 97 98 95 97 97 96 93 94 78 62 70 62 76 80 84 91 86 88 94 96 98 96 99 100 100 100 100 99 97 76 95 100 79 93 90 78 64 49
95 97 97 95 96 97 97 97 97 96 96 97 97 96 94 94 86 79 72 68 75 81 82 87 85 82 92 96 100 99 100 100 98 97 100 99 100 100 99 98 92 82 69 48 35 40 64
98 94 93 86 89 84 97 97 97 98 96 96 97 96 92 87 94 92 93 90 88 97 96 92 83 86 97 100 100 98 97 97 97 100 100 100 100 100 90 74 58 34 40 42 56 93 98
94 97 98 100 100 97 98 97 97 97 98 98 99 96 96 96 95 96 97 92 92 92 92 89 91 100 100 97 100 100 100 100 100 100 99 80 49 42 36 56 77 70 91 90 96 99 99
98 97 96 96 95 94 90 92 95 96 96 96 94 93 91 83 97 95 78 84 97 100 100 95 100 95 85 94 100 100 97 90 61 40 26 24 29 86 100 100 100 100 98 100 100 95 100
93 94 97 90 94 97 94 93 98 95 94 94 96 93 92 100 96 87 86 100 99 97 88 72 55 57 53 55 50 39 26 16 13 18 29 52 99 100 100 100 100 100 100 97 75 74 73
95 82 78 86 98 97 92 92 92 84 59 66 85 92 88 67 67 80 94 87 59 46 36 33 28 21 15 9 5 4 5 7 18 19 68 97 100 100 100 100 100 100 100 94 67 56 66

GFSGBSN_500_rhum_210.txt.gz
RH
19 20 20 21 23 22 22 20 20 24 29 23 22 22 28 35 36 32 42 41 34 32 31 33 35 39 41 41 36 43 41 37 35 39 41 39 35 34 30 28 24 21 22 21 21 23 26
20 21 21 22 22 22 23 21 20 22 21 25 21 23 28 31 32 37 47 42 35 33 32 33 34 40 41 35 43 46 42 33 27 34 40 42 40 36 32 35 36 33 27 33 33 34 33
21 22 22 22 22 23 22 21 21 20 22 24 22 27 28 29 33 32 50 43 38 38 35 34 36 42 40 30 34 43 37 29 26 32 41 41 39 42 45 43 40 34 31 32 35 36 34
20 22 22 22 22 22 22 22 21 23 28 24 26 28 27 31 39 40 46 48 44 42 40 36 34 43 37 31 33 29 27 28 27 26 33 37 38 41 44 46 46 41 38 34 41 35 35
20 22 23 23 23 23 23 22 23 31 27 25 27 27 29 38 48 44 52 49 44 44 42 39 38 42 42 36 34 28 30 27 28 28 35 32 31 42 48 48 42 43 35 35 34 41 40
23 24 24 24 25 24 23 22 25 26 26 25 28 27 34 49 48 37 50 45 45 47 47 40 36 40 45 37 36 32 32 27 27 31 30 32 30 40 48 40 37 36 38 34 32 38 37
24 26 25 23 24 25 23 23 25 25 31 27 27 35 45 52 50 46 50 43 44 53 66 60 40 43 41 42 36 32 34 32 30 36 35 40 37 43 45 46 46 42 39 35 33 32 27
24 29 28 24 25 23 24 25 27 43 59 33 37 42 50 58 48 48 52 39 38 40 43 54 50 44 41 40 38 39 39 36 37 37 36 46 46 41 43 46 39 38 34 29 30 32 32
34 32 30 28 23 26 26 30 55 72 67 35 46 46 60 57 49 60 52 42 42 48 50 45 48 46 42 38 40 43 40 33 34 36 36 51 49 40 36 44 44 45 40 36 32 29 29
44 32 33 31 28 31 29 44 57 74 57 41 45 52 60 58 58 71 56 46 44 49 55 58 52 52 49 46 48 49 48 49 46 44 38 50 57 47 45 53 59 42 54 45 40 39 35
49 31 33 32 40 29 32 53 58 78 58 38 43 57 69 60 80 74 60 51 48 51 58 60 60 60 58 55 54 52 59 60 58 56 50 54 56 53 48 57 55 47 52 47 43 45 44
90 90 87 78 37 49 62 76 74 70 59 37 50 58 79 69 80 79 64 59 54 55 59 59 58 71 69 66 63 59 60 55 58 60 58 50 56 54 52 52 56 54 57 61 57 63 46
94 95 94 79 63 87 82 70 42 52 34 39 62 60 76 83 89 80 72 64 63 58 65 63 60 56 64 68 76 74 73 69 66 56 54 56 57 61 59 61 72 68 75 74 61 58 53
97 95 96 94 97 93 86 83 72 36 40 62 60 71 79 91 88 81 71 63 64 59 68 77 74 80 71 73 69 66 62 62 68 68 62 60 53 61 58 53 56 71 82 93 81 57 47
97 95 96 96 98 90 96 94 79 45 66 78 74 80 95 95 87 86 72 63 66 70 72 80 89 74 85 92 84 83 73 64 66 70 81 74 62 57 52 56 67 72 84 88 95 79 72
96 97 97 98 97 97 97 96 87 80 80 82 81 90 90 89 94 91 73 66 67 91 82 77 85 91 87 95 89 88 75 68 66 68 75 72 68 68 72 74 70 82 91 88 99 100 97
96 96 98 95 100 98 96 96 96 92 91 87 89 94 86 89 98 93 71 74 77 89 98 83 87 87 86 82 74 71 64 69 75 72 77 70 65 58 60 73 89 84 78 81 85 90 98
98 96 96 95 96 97 94 96 96 92 82 90 95 92 79 87 94 80 73 94 91 82 94 83 72 65 66 66 52 57 64 75 77 82 75 72 71 53 55 72 81 74 79 93 100 95 98
98 100 95 97 96 96 97 98 98 93 94 96 96 92 84 75 71 73 86 94 95 92 99 76 56 54 59 62 74 61 64 72 84 78 76 81 71 63 59 67 71 68 81 96 100 99 93
94 97 98 96 96 97 99 97 91 94 96 97 97 94 83 70 76 97 95 95 91 99 94 78 52 48 57 58 55 52 58 84 83 81 81 83 75 72 80 89 84 80 98 100 100 100 100
95 98 95 96 97 98 98 97 95 96 97 99 96 90 73 82 85 100 97 96 98 98 96 85 63 58 70 63 62 70 74 74 72 74 76 78 66 68 69 82 95 96 98 100 100 100 100
93 98 91 97 96 99 96 98 97 98 97 96 96 96 97 89 100 100 96 96 96 97 92 87 76 72 73 76 85 84 87 83 77 74 83 94 94 97 90 97 99 84 88 100 100 100 100
91 96 96 97 97 97 97 97 96 97 97 97 94 95 98 96 97 97 96 96 98 97 92 93 87 84 77 86 88 89 98 97 99 98 100 97 97 99 77 88 89 70 89 100 100 100 100
98 96 91 98 98 94 96 98 98 98 97 95 97 98 97 96 98 98 97 96 97 97 97 98 94 80 81 94 98 96 97 98 96 95 94 100 100 100 99 100 99 100 100 94 73 52 34
96 99 90 98 95 98 97 95 98 96 96 96 97 98 97 95 96 96 96 96 94 95 95 95 96 95 92 92 98 100 100 95 93 99 100 100 100 100 100 100 89 68 42 53 62 65 88
99 94 95 93 97 96 97 97 98 97 96 95 95 97 96 98 89 95 96 97 96 96 97 98 97 95 99 96 98 96 97 93 92 95 100 98 88 52 29 35 39 39 72 68 71 84 82
86 92 84 87 85 95 98 99 96 95 93 98 96 95 95 96 96 97 97 97 97 99 94 88 85 92 92 87 91 96 87 71 51 32 14 7 10 16 29 67 82 96 100 100 100 100 97
46 84 97 97 97 99 94 96 96 97 96 92 93 97 98 98 98 97 97 96 92 76 76 87 88 93 79 72 46 26 11 4 3 3 4 4 9 21 58 100 100 100 100 97 100 100 100
18 86 99 96 99 98 96 96 97 97 92 88 94 98 98 97 97 96 94 91 76 78 74 56 43 36 19 7 3 3 2 2 3 4 11 13 26 31 49 44 70 91 96 90 81 75 79

GFSGBSN_500_rhum_216.txt.gz
RH
14 14 14 15 13 13 13 13 15 18 23 22 21 21 20 20 22 23 25 26 29 37 40 36 31 38 31 32 33 39 39 35 39 44 41 40 36 36 41 40 37 33 30 25 24 24 25
13 14 15 16 15 14 15 15 15 19 23 22 23 21 21 20 20 22 27 24 27 34 40 36 32 34 33 32 36 38 39 32 37 47 42 37 32 26 36 43 42 37 34 30 27 30 29
13 14 15 18 18 16 16 16 16 20 22 25 24 23 22 20 20 21 25 24 26 35 41 37 34 34 30 34 36 37 41 34 33 38 39 36 29 24 34 47 43 43 41 36 36 42 39
14 13 14 18 20 18 18 18 18 22 24 24 25 23 22 21 20 22 23 26 29 35 41 38 35 36 35 34 40 35 37 39 34 30 28 33 29 26 34 47 50 50 46 44 48 48 47
18 14 15 18 18 19 19 19 19 21 22 23 25 24 22 21 21 22 24 36 38 38 44 40 40 43 38 37 45 42 37 41 37 33 28 29 31 33 38 42 47 51 46 47 48 54 55
24 18 16 18 18 19 21 20 20 21 22 25 24 24 23 22 22 22 20 37 38 38 43 40 45 48 42 38 42 42 39 39 41 36 31 30 35 39 37 35 37 36 42 47 43 46 47
25 21 18 21 19 19 22 22 21 22 23 24 24 23 23 22 22 23 19 42 36 40 47 45 44 50 50 41 40 43 39 36 39 40 37 34 32 35 41 39 36 36 36 41 50 47 25
32 23 21 21 22 21 21 23 23 23 23 24 26 36 25 22 22 22 20 38 44 41 54 49 42 40 51 54 43 42 45 40 41 44 43 40 39 39 40 40 41 42 37 44 37 40 29
38 32 25 21 24 23 22 23 25 23 22 25 26 31 24 25 26 26 25 37 45 42 61 58 45 42 47 52 55 52 50 49 43 45 45 44 43 44 46 46 41 41 44 43 37 40 33
63 44 30 28 26 30 23 25 26 24 21 29 28 36 26 30 45 41 34 43 52 48 56 60 58 54 50 50 50 54 52 55 55 50 49 50 48 46 47 58 55 45 53 47 40 38 33
95 56 42 34 38 71 27 26 27 23 24 36 36 26 26 35 35 40 43 48 54 56 53 65 67 64 59 51 56 54 55 51 57 58 57 62 60 57 60 67 67 60 62 61 58 53 45
97 77 73 49 52 49 33 31 28 24 24 52 55 28 26 30 35 47 45 56 60 52 50 67 72 72 64 59 61 59 57 58 58 62 62 67 68 68 75 74 76 66 57 53 45 46 31
94 95 96 89 40 40 43 37 35 28 26 37 33 30 29 33 37 44 63 66 62 53 56 66 79 82 74 67 67 65 65 66 58 55 66 67 70 70 67 65 64 61 61 48 42 44 39
97 96 99 95 68 68 47 73 74 36 32 34 42 54 34 34 36 47 52 71 61 57 56 80 85 87 86 86 76 63 58 69 72 63 52 44 39 46 44 45 43 46 61 74 64 53 48
98 99 97 96 94 61 63 76 52 40 39 41 63 83 42 41 53 43 55 63 58 59 74 92 85 80 84 95 87 72 67 70 69 70 65 56 44 44 48 57 65 67 68 72 74 72 49
98 96 99 96 96 74 78 89 62 55 48 53 57 80 56 51 65 56 64 62 58 61 76 95 87 80 77 85 87 87 75 72 77 81 84 61 39 40 41 42 50 52 53 58 72 68 49
96 99 97 98 92 98 96 95 81 57 58 67 66 82 62 66 70 64 64 62 63 65 85 86 87 90 88 82 80 72 66 62 62 54 50 53 42 39 39 41 43 50 49 52 58 65 83
96 90 98 99 88 96 98 91 75 83 88 89 85 74 55 79 73 71 65 66 73 81 97 89 89 98 90 95 90 82 84 81 71 64 52 49 45 40 41 45 41 40 40 47 70 75 94
98 100 98 97 98 98 98 96 89 91 95 92 86 71 60 85 76 78 70 76 83 86 100 91 91 96 99 98 93 82 86 84 87 81 62 55 56 58 54 54 49 60 55 45 80 96 85
95 91 96 99 96 100 98 98 93 97 91 93 94 79 78 94 80 80 80 89 92 90 97 98 93 94 96 97 99 82 82 86 97 100 84 84 84 83 70 67 67 61 58 61 71 83 91
91 96 95 98 99 99 96 97 97 96 92 97 91 85 81 83 78 91 96 92 99 100 96 94 86 99 98 96 91 91 92 92 91 91 94 90 70 69 69 68 68 64 52 54 77 95 100
58 96 96 98 98 97 97 98 98 94 99 94 91 86 81 89 96 99 96 95 96 99 97 91 94 96 97 96 100 96 95 98 90 86 87 79 73 64 49 61 59 55 58 73 68 76 76
18 76 97 99 90 100 98 100 96 99 95 88 74 89 95 96 98 97 82 98 98 93 90 94 98 96 96 99 97 98 96 95 92 85 86 86 75 78 54 49 48 40 41 35 28 12 8
21 91 97 99 97 99 98 97 98 98 89 88 80 98 98 92 98 97 97 100 98 100 97 95 99 96 96 98 97 99 98 96 96 91 81 81 83 70 60 59 43 32 12 5 3 3 6
22 63 96 91 98 97 99 97 95 97 94 91 95 97 96 92 96 93 98 98 98 98 98 97 97 97 98 97 100 98 97 95 88 80 81 77 74 70 55 32 10 4 3 4 4 4 6
17 35 71 87 97 98 96 98 97 98 98 96 98 99 97 96 92 99 97 97 98 98 97 96 98 98 100 100 99 96 98 92 87 76 63 62 56 31 5 3 3 3 4 4 5 5 6
12 20 62 96 98 98 94 96 97 97 97 97 97 97 97 97 96 98 97 98 98 97 97 97 98 97 95 93 94 93 92 91 91 79 71 43 10 4 3 4 4 5 6 7 6 12 13
10 20 76 89 97 98 97 97 97 98 98 98 97 96 98 96 96 98 98 98 97 97 98 96 99 97 95 97 95 87 78 75 73 56 19 5 4 4 4 5 6 9 9 10 22 43 45
9 25 53 97 96 97 94 94 97 97 97 97 95 96 96 97 97 98 97 98 98 97 97 96 100 95 85 78 66 67 69 53 22 5 4 4 4 5 5 6 8 10 14 16 31 50 62

GFSGBSN_500_rhum_219.txt.gz
RH
11 10 9 10 12 15 16 18 17 16 14 16 19 21 21 21 22 19 20 19 19 22 22 26 38 34 30 31 27 25 26 33 35 31 35 40 38 36 35 36 41 39 35 31 28 28 25
13 12 10 9 12 14 16 18 18 16 16 17 19 22 22 22 22 21 20 19 19 19 26 37 30 35 30 32 32 26 29 30 34 28 36 41 38 33 34 34 42 40 39 34 30 30 28
16 14 16 10 11 13 16 17 19 18 19 18 19 21 24 23 23 21 21 19 20 20 26 30 35 37 34 34 35 32 32 33 37 34 28 35 35 29 30 34 38 44 41 39 36 34 33
19 16 13 13 11 13 16 18 19 20 20 19 20 22 24 24 24 22 22 19 20 20 20 32 34 39 38 37 34 33 36 34 36 36 34 28 27 25 26 28 36 39 40 44 43 42 40
30 20 18 15 14 14 16 18 20 20 21 19 21 23 24 26 27 23 22 21 21 21 19 28 33 38 41 37 33 31 36 35 34 37 36 33 31 29 24 23 29 39 40 36 44 50 48
91 34 21 19 17 16 16 18 20 20 22 20 20 22 24 26 25 23 22 22 21 21 21 33 38 41 44 41 33 30 33 38 37 36 38 36 34 32 27 28 32 32 35 34 36 37 38
97 96 31 26 21 20 37 17 22 20 21 22 21 23 24 26 25 23 22 22 22 22 28 36 40 45 41 44 42 36 34 35 40 38 37 39 39 36 33 32 34 29 30 35 38 36 17
97 97 71 33 29 24 28 18 21 22 22 25 22 23 26 26 26 27 26 30 22 26 41 48 54 50 49 47 43 40 38 39 44 45 41 38 37 35 34 35 35 33 30 33 32 35 25
97 97 98 73 39 30 26 19 23 24 28 26 24 24 25 28 26 27 37 33 27 33 39 40 67 57 57 56 52 45 45 47 48 56 52 46 42 42 38 37 40 38 37 36 36 39 39
96 96 94 96 39 33 29 29 26 25 26 25 26 25 26 26 29 26 30 27 32 41 47 48 69 63 62 61 59 49 48 48 47 49 61 61 57 53 47 48 52 49 56 55 54 49 36
99 92 97 97 91 40 32 33 73 27 27 36 29 25 25 28 29 29 38 37 39 44 49 55 75 66 69 68 67 55 48 43 46 50 56 65 59 56 64 76 67 63 61 54 49 44 32
98 98 97 98 96 90 58 32 50 32 31 37 30 28 25 28 30 29 34 39 42 70 46 57 80 64 61 70 76 62 56 52 50 53 56 65 62 56 60 62 64 60 55 53 43 42 30
86 87 98 98 98 95 73 40 42 32 34 33 31 28 26 29 32 36 33 29 34 57 43 55 91 79 68 85 84 74 66 57 48 45 54 67 72 66 59 64 68 68 56 40 34 35 31
18 92 98 98 99 96 92 54 42 36 35 39 36 30 30 33 41 50 36 32 38 47 45 50 88 81 72 96 90 82 80 79 61 48 45 46 53 66 67 68 70 61 56 50 35 33 29
13 81 98 99 98 98 96 96 90 50 42 66 86 34 33 37 38 38 34 35 44 56 48 64 88 77 69 96 93 88 78 82 77 67 59 50 45 50 53 57 56 51 52 53 52 49 41
9 43 99 98 98 93 100 96 95 50 47 79 79 38 42 42 37 37 43 48 52 55 64 70 88 82 78 82 94 91 83 77 75 79 66 56 48 47 48 52 64 65 65 64 69 55 45
8 15 76 98 98 99 98 98 96 96 76 87 55 43 48 45 41 41 50 56 61 60 62 75 85 91 84 89 100 82 71 71 79 79 75 73 63 56 50 56 54 52 49 59 67 74 70
6 13 60 74 100 98 98 100 97 97 94 89 78 53 69 77 49 46 54 52 60 64 72 94 85 96 99 98 90 84 81 76 74 73 65 68 68 64 70 69 65 59 65 84 88 85 90
5 11 24 98 94 98 99 98 97 96 92 90 77 64 73 68 61 62 68 64 66 66 84 95 92 96 99 96 91 83 79 83 82 85 72 70 60 59 68 81 83 78 76 78 94 95 88
8 9 17 52 99 99 93 98 97 96 96 98 84 87 87 77 72 68 61 62 68 69 90 96 92 97 96 98 98 84 83 77 78 80 80 78 69 81 81 97 85 73 70 70 78 72 65
10 8 17 74 99 98 98 98 100 98 94 91 88 83 77 72 68 63 67 71 81 87 95 97 90 98 97 97 100 97 100 95 87 81 83 87 80 89 83 82 82 82 82 76 64 66 56
15 10 17 23 96 99 92 97 94 100 100 93 86 69 76 76 77 87 93 82 82 95 95 95 94 98 97 96 98 95 93 89 84 77 86 86 81 83 82 85 94 77 69 68 64 65 69
16 12 23 28 98 99 98 99 100 96 92 77 81 82 88 86 95 95 87 96 98 96 88 96 97 96 98 98 96 96 95 84 90 86 83 79 95 96 81 84 76 59 54 54 49 39 28
39 20 20 57 98 97 98 98 95 95 90 71 75 94 94 93 98 98 98 98 96 97 96 96 98 98 97 97 97 97 95 82 91 100 100 96 97 95 89 82 73 72 63 57 39 19 5
41 27 21 70 98 97 98 97 100 98 98 92 84 97 92 95 99 95 97 98 97 96 97 96 96 97 97 98 98 98 95 96 100 96 95 98 98 99 95 92 93 87 48 22 7 4 4
36 28 29 31 96 97 96 99 96 95 96 100 96 100 98 98 89 98 97 96 97 97 97 97 97 98 100 98 100 97 96 94 92 84 86 93 93 93 97 92 64 31 9 4 4 5 6
40 30 29 21 66 96 96 99 100 97 98 99 97 98 98 96 97 99 97 97 97 97 97 97 96 97 97 96 99 99 97 99 97 92 89 90 84 77 62 32 13 5 5 5 6 7 6
43 23 25 22 37 93 97 99 96 99 98 96 94 99 96 97 98 98 98 96 98 98 98 97 98 93 96 98 100 98 96 96 94 81 72 71 61 40 16 5 5 5 6 7 7 8 8
40 33 28 24 75 92 92 96 98 98 98 98 96 95 98 97 83 95 99 93 95 91 100 100 97 99 95 98 99 97 93 80 79 76 62 36 20 10 5 6 6 7 8 8 8 12 15

GFSGBSN_500_rhum_222.txt.gz
RH
17 15 15 12 10 10 9 12 14 17 17 18 15 14 15 22 22 21 21 21 20 19 17 17 14 22 32 33 32 31 29 30 25 32 28 24 32 37 38 41 37 37 41 36 32 27 24
87 56 21 16 13 11 10 10 13 16 17 18 17 14 14 20 22 23 22 21 20 20 18 15 15 29 34 35 34 33 30 35 28 28 33 24 30 34 36 37 34 28 41 40 35 32 29
98 87 75 43 16 13 12 10 11 14 17 18 17 16 15 17 22 24 23 23 20 19 19 16 15 15 28 35 34 34 31 34 32 30 32 32 28 29 28 28 31 26 31 43 40 36 33
82 96 97 84 42 15 14 13 11 13 16 17 18 18 17 16 20 24 24 24 21 19 19 18 17 19 31 36 37 32 33 30 30 33 32 34 32 28 24 21 24 26 26 41 41 41 39
77 85 96 95 64 19 16 14 14 14 14 18 18 18 19 17 19 23 25 25 24 25 19 20 19 22 28 37 37 36 31 29 31 33 35 37 36 31 28 25 24 25 27 33 41 46 42
35 76 94 96 91 52 20 17 20 17 15 17 18 19 18 18 20 22 24 26 25 32 29 20 22 26 38 42 42 37 38 36 34 32 36 36 38 37 32 29 27 25 28 31 30 28 26
10 97 69 96 98 73 27 18 21 29 17 18 20 22 20 19 20 23 22 27 26 23 22 22 22 39 38 46 44 44 39 39 41 37 35 41 38 34 34 32 30 27 26 28 26 20 16
7 57 65 87 94 96 43 26 22 24 22 49 20 22 22 23 20 23 24 27 26 26 28 50 35 41 42 43 50 50 44 48 43 43 42 44 45 40 35 33 30 28 25 26 30 28 19
5 6 81 72 97 95 96 70 29 24 24 21 20 23 24 23 24 23 26 26 26 27 38 31 44 58 58 49 53 57 50 51 52 45 47 46 50 47 40 36 36 33 31 32 30 36 39
3 6 29 83 98 98 96 95 93 67 34 26 22 26 25 23 27 24 27 27 27 28 38 36 49 61 62 57 56 59 61 56 50 51 57 53 53 50 46 45 39 33 34 33 32 32 31
3 4 7 22 97 97 97 91 99 92 61 33 28 71 34 30 28 26 28 28 28 28 35 39 40 60 70 67 61 57 60 59 59 55 58 55 53 55 57 54 41 37 39 39 37 37 30
5 3 5 7 70 94 82 91 96 98 46 56 31 40 28 29 31 27 28 30 30 31 34 38 40 52 86 69 67 61 59 63 63 60 62 59 56 56 60 65 59 45 39 38 39 38 26
12 6 3 6 69 92 72 98 91 98 89 91 39 53 29 29 32 31 30 32 32 30 33 38 37 52 89 63 78 68 65 70 61 55 70 68 63 62 65 66 62 59 53 45 42 32 30
20 13 5 3 10 35 90 99 93 97 97 97 64 80 33 29 36 55 32 33 30 28 32 33 34 42 68 74 88 68 72 82 71 61 74 69 63 68 79 78 71 66 59 57 42 38 37
11 27 11 4 4 19 98 99 95 97 97 79 56 75 56 35 33 40 37 31 30 28 36 38 36 45 83 86 92 76 64 83 75 75 79 70 63 71 73 72 74 59 58 50 44 42 38
31 31 16 6 4 19 86 72 99 99 95 97 82 87 76 88 40 48 61 34 32 31 42 38 40 65 80 96 91 90 70 70 81 82 74 72 59 64 70 74 83 86 76 70 62 61 57
63 25 15 9 5 7 22 97 99 99 98 98 97 90 81 94 44 39 51 49 40 35 40 37 44 76 78 97 94 95 82 73 86 86 84 77 66 56 61 63 66 60 64 81 83 83 82
39 25 18 10 5 6 44 98 98 100 100 98 95 91 91 71 53 46 40 59 50 38 40 40 66 95 91 90 92 93 95 83 89 84 78 89 83 67 65 67 67 67 77 81 80 83 71
25 28 20 12 7 6 90 98 99 100 97 94 94 89 87 74 69 69 66 63 39 44 41 50 74 92 94 96 91 90 100 97 90 85 83 79 74 66 60 69 67 58 72 85 94 90 85
20 24 17 11 10 7 93 98 99 93 99 100 96 95 98 82 75 75 71 81 51 46 61 79 84 95 96 97 95 88 100 96 85 87 100 99 77 80 81 84 89 63 66 81 100 94 96
20 20 18 18 13 5 39 98 97 100 99 97 91 78 88 76 67 65 78 70 50 67 78 81 93 96 99 90 90 97 97 96 81 92 100 100 78 73 74 79 80 82 88 93 96 92 84
19 20 26 23 13 6 21 56 100 99 100 98 86 75 78 87 86 90 96 87 85 90 96 98 96 98 91 84 97 96 98 100 92 93 99 96 83 71 61 79 79 69 80 90 85 87 83
19 24 33 24 10 6 14 89 98 100 99 89 74 81 80 87 95 88 83 85 92 98 95 96 96 94 88 94 95 98 99 96 86 84 97 88 78 77 68 68 79 66 69 77 78 75 85
29 36 30 15 10 8 7 83 99 99 91 74 72 76 76 77 84 89 98 98 98 99 97 87 93 96 94 98 98 97 96 93 78 72 87 87 92 94 88 90 82 68 70 75 79 74 60
34 36 24 17 18 12 12 55 99 93 98 93 96 77 88 96 99 97 95 98 97 97 96 96 98 97 97 97 98 96 88 84 80 77 79 94 100 99 96 89 89 83 83 76 60 45 30
40 33 17 21 26 15 21 84 98 92 100 100 98 100 100 96 89 98 98 97 97 96 97 96 98 97 97 98 98 96 89 89 77 71 85 99 100 100 95 96 79 73 70 56 34 18 10
40 19 19 84 100 14 48 99 99 99 99 100 99 98 98 96 98 94 96 97 98 97 97 97 98 98 97 98 99 96 88 96 85 84 94 100 98 95 95 86 72 54 37 21 13 10 7
26 17 98 100 100 28 18 72 95 96 100 99 98 96 97 96 98 97 96 97 99 97 98 98 98 97 98 98 100 94 89 90 95 95 94 97 97 82 72 60 44 34 17 9 8 6 6
46 72 100 100 100 40 47 93 99 99 100 97 98 97 99 98 93 95 97 98 98 97 98 98 98 98 98 98 95 96 96 98 100 94 99 90 77 69 53 28 19 11 7 6 6 8 9

GFSGBSN_500_rhum_228.txt.gz
RH
19 17 18 17 17 14 9 6 7 8 10 10 11 15 19 20 21 20 14 14 18 20 19 17 17 16 13 12 13 19 26 30 26 23 25 21 23 28 28 34 35 36 39 36 37 35 36
65 28 19 19 18 17 17 14 8 6 7 10 10 10 14 18 18 21 20 14 14 19 21 19 18 19 16 18 17 15 23 32 31 24 22 26 21 26 30 29 34 36 34 35 34 30 30
97 94 47 21 22 19 19 19 17 14 10 7 9 10 10 14 14 18 19 20 16 16 19 20 20 19 18 20 26 15 21 34 34 27 23 23 26 22 28 32 27 28 24 30 34 32 28
96 96 99 95 75 66 39 25 21 18 17 14 11 9 10 12 12 15 18 19 18 15 16 20 19 21 21 30 35 24 22 34 37 31 26 25 28 29 27 33 32 30 29 28 27 27 28
69 86 92 93 97 95 71 47 32 21 21 18 17 15 12 12 12 13 17 19 19 18 15 18 24 26 21 25 27 30 26 29 37 37 31 28 26 32 30 31 37 37 36 41 50 60 36
14 28 47 29 50 91 96 96 51 47 40 21 20 20 17 15 14 14 16 20 20 21 17 18 36 34 23 27 28 25 27 42 51 45 38 32 31 34 35 34 37 44 68 98 98 92 67
12 10 9 8 17 38 46 81 96 94 97 57 36 29 22 20 16 15 16 19 20 22 19 20 31 34 23 25 30 26 35 39 45 64 48 40 37 38 42 36 39 38 40 44 55 90 100
14 15 14 13 10 10 33 30 41 56 48 94 94 86 85 74 33 17 16 18 20 22 21 20 20 20 23 31 25 29 36 37 50 81 51 48 42 36 45 49 46 44 42 41 43 53 60
19 18 18 18 16 14 12 17 32 87 27 44 79 90 96 90 71 24 18 20 21 24 23 26 23 22 25 30 25 27 33 38 52 68 71 56 57 41 45 46 50 48 42 45 40 40 41
31 28 25 24 22 18 14 13 13 28 9 10 26 53 60 96 98 90 36 21 24 27 26 26 24 24 27 38 36 28 32 39 48 64 78 64 58 54 52 46 54 50 52 41 42 41 37
31 31 31 28 25 23 19 16 11 9 9 8 8 39 66 90 94 100 83 36 32 31 35 32 26 25 28 32 36 32 32 38 45 60 72 77 67 56 58 56 50 48 52 50 49 47 45
25 28 29 32 29 24 21 18 15 9 7 8 8 10 91 97 99 96 77 39 38 42 40 41 37 36 30 31 40 35 33 31 42 47 76 77 82 71 72 65 60 61 50 51 52 48 45
25 25 26 24 21 18 17 15 14 10 6 5 7 7 52 78 94 93 96 90 76 68 60 60 53 38 34 35 38 37 34 39 39 40 54 86 84 69 64 70 81 75 65 60 52 53 52
25 22 21 15 13 9 9 9 6 6 5 4 4 22 8 20 94 73 96 96 78 53 65 77 49 39 48 47 39 35 33 38 38 37 40 77 86 86 72 71 74 83 87 77 66 57 53
24 22 18 16 8 6 5 5 5 4 4 4 3 4 9 67 15 86 99 92 50 52 50 63 62 42 49 43 36 41 42 48 40 40 50 57 80 86 76 62 62 77 85 86 71 66 62
25 23 20 14 10 6 6 6 7 7 5 5 7 3 4 76 82 98 98 80 60 83 69 64 56 48 54 55 39 44 41 39 42 40 47 57 76 81 84 94 78 77 75 79 85 68 62
26 24 18 10 8 8 9 10 10 9 8 9 9 9 4 8 100 100 91 56 84 81 100 86 72 62 58 69 60 48 60 52 53 46 49 68 74 78 85 95 92 89 89 89 90 88 79
25 23 17 11 10 9 9 10 11 15 14 13 24 7 6 14 57 93 78 60 88 82 100 84 74 57 56 44 45 45 49 44 61 56 50 65 68 72 86 94 90 89 88 100 100 86 89
27 24 17 9 8 10 11 15 18 17 17 16 13 10 10 22 20 9 42 78 87 83 95 85 78 61 64 47 54 53 55 53 76 59 52 68 73 68 78 82 88 89 93 98 98 96 79
14 10 7 6 7 9 10 13 20 21 20 17 16 27 28 26 31 23 9 48 78 89 90 92 76 65 72 52 52 58 66 67 92 72 74 76 67 68 94 100 97 79 86 100 100 94 85
9 12 12 10 9 9 13 24 25 26 23 20 18 16 11 24 14 6 8 11 59 64 81 93 83 78 83 66 58 77 85 94 94 89 71 73 65 79 99 82 91 91 90 98 98 100 94
24 21 29 31 28 27 29 29 30 31 32 32 30 26 21 19 11 77 33 10 18 60 83 86 91 90 99 92 98 100 97 89 78 83 84 78 81 95 86 93 93 78 92 95 92 92 85
46 40 37 43 43 38 37 42 40 39 42 36 36 25 26 28 22 20 27 8 24 76 68 93 100 99 94 99 99 93 92 98 98 91 83 83 97 98 71 82 81 62 83 74 76 80 75
63 55 50 54 53 50 50 45 42 54 45 40 39 31 23 16 21 16 26 54 38 42 70 98 100 96 100 98 97 90 90 96 92 91 94 96 100 100 85 93 73 74 72 68 65 67 81
49 51 48 49 47 35 37 23 27 36 45 48 40 40 23 22 89 73 69 62 40 61 98 100 99 90 92 96 99 96 86 81 90 96 98 99 100 98 97 96 84 87 81 66 76 81 86
47 41 43 37 35 33 31 32 26 29 28 37 40 33 22 31 89 94 52 77 93 99 100 95 95 97 99 99 97 84 81 98 95 94 98 100 99 98 99 97 90 84 67 82 88 72 74
59 54 50 44 39 44 50 41 40 45 46 44 39 33 67 63 56 63 78 72 97 98 98 95 97 98 99 96 94 92 95 100 93 99 98 95 97 96 99 97 88 86 69 91 89 86 90
100 100 95 77 61 50 47 43 39 34 28 36 32 25 69 64 100 100 100 89 94 92 86 89 99 95 96 97 97 97 98 99 95 100 99 94 98 94 98 98 94 88 88 98 98 95 87
91 92 70 73 80 90 94 88 61 39 23 19 19 36 96 100 99 100 87 95 98 95 94 98 98 98 98 97 97 99 98 97 100 93 100 95 100 97 100 98 100 94 96 100 94 79 19